GFSSGP_sfc_thetae_069.txt.gz
Theta_e
329 323 325 322 309 306 301 302 306 304 305 309 314 309 308 309 306 306 336 341 341 341 342 343 348 349 349 349 349 347 345 342 341 340 339 339 339 339 340 341 344 344 345 343 341 339 337 335 334
323 320 322 316 304 300 300 304 302 306 310 310 311 311 309 311 320 327 334 342 342 342 343 343 346 349 348 349 348 347 345 342 340 339 337 336 336 336 338 340 342 344 343 342 340 337 335 334 334
322 317 316 310 304 299 299 304 305 308 311 309 309 313 312 313 322 330 340 342 343 343 344 346 346 350 349 349 348 347 345 342 340 339 337 334 334 334 336 338 339 342 341 339 335 335 334 334 334
319 317 314 304 301 303 303 305 307 308 307 309 311 308 316 323 329 333 341 342 342 342 344 344 348 350 348 348 348 347 345 342 341 340 337 334 332 332 334 336 336 338 336 333 332 332 332 332 333
319 315 305 303 301 304 306 306 308 306 307 308 310 307 312 322 330 335 340 341 341 341 343 346 347 348 348 348 348 347 345 343 342 340 338 334 331 331 332 333 334 335 331 330 329 330 330 331 331
311 312 302 300 302 304 306 307 308 307 307 308 308 308 312 325 328 335 341 341 342 341 344 344 340 343 345 346 346 346 345 344 342 340 338 334 331 330 330 331 332 331 328 326 327 328 329 329 329
310 307 302 302 301 302 304 308 307 307 306 306 310 306 314 320 327 335 339 341 342 342 343 342 343 342 338 341 341 343 343 343 342 341 339 337 333 332 332 331 329 329 326 324 325 326 328 329 328
311 308 303 303 301 300 306 307 309 308 306 311 313 306 308 318 328 334 338 339 340 339 340 341 343 343 343 345 335 338 339 340 340 338 335 332 332 330 329 327 328 326 324 323 323 326 327 327 326
310 303 300 302 302 303 306 305 307 309 307 308 311 310 316 322 329 333 334 335 336 337 339 340 341 340 342 343 339 334 335 336 334 332 328 326 329 327 327 325 326 325 323 323 323 325 324 323 323
307 302 302 306 306 304 306 306 307 305 306 306 308 311 316 325 327 328 329 332 335 337 338 339 340 340 341 340 343 343 343 342 339 336 332 335 333 331 326 321 323 324 323 322 322 323 323 322 321
306 302 305 304 305 305 305 304 307 304 304 307 307 310 312 322 325 326 328 330 333 337 337 339 340 340 340 340 343 344 344 344 342 338 337 338 333 329 327 323 321 319 317 316 316 317 319 320 320
301 303 303 304 305 304 303 306 304 305 307 309 311 312 311 318 322 324 326 328 331 334 336 339 340 340 342 343 342 342 342 342 341 341 338 336 331 330 327 325 323 323 322 320 319 318 318 317 317
301 302 302 304 304 304 303 303 304 305 309 310 308 308 311 314 319 323 326 329 331 332 335 338 340 341 341 342 341 342 341 343 341 341 340 338 332 331 330 324 321 321 322 320 318 317 315 313 313
303 302 302 303 304 303 301 303 303 306 309 309 308 307 309 311 314 319 323 326 329 332 334 336 338 338 336 338 339 339 341 341 342 340 340 339 335 333 329 323 320 321 321 318 316 314 311 309 308
303 300 302 302 303 302 303 300 300 306 306 306 307 307 309 310 312 315 321 325 329 332 333 334 335 337 336 334 337 337 339 339 340 341 341 339 336 332 329 324 322 322 321 317 311 306 304 302 301
300 300 296 302 302 302 302 296 305 306 306 305 306 308 309 309 310 313 318 323 327 330 331 333 331 331 332 332 334 335 337 338 338 339 340 339 337 334 329 327 325 320 318 310 306 303 300 298 298
300 294 296 299 302 301 301 299 305 305 304 304 306 308 308 309 310 311 315 320 322 327 329 331 329 327 329 331 332 333 334 335 337 338 338 339 337 335 330 326 322 318 313 310 303 301 301 297 296
294 295 296 296 299 299 299 299 303 305 305 305 306 307 308 309 309 311 312 316 320 325 327 328 327 325 326 328 328 329 331 330 333 335 334 333 336 333 330 324 318 315 312 306 304 299 299 296 294
297 296 295 298 299 298 298 298 301 304 304 304 305 306 307 308 311 313 313 313 316 320 322 324 324 323 324 323 321 322 322 326 324 325 328 329 327 327 325 320 316 314 311 307 304 296 293 293 294
297 295 295 298 299 296 297 297 301 303 304 305 305 306 307 308 310 312 313 313 312 315 318 318 318 318 319 319 319 319 318 319 320 319 320 321 321 323 321 317 314 312 308 303 297 294 293 292 293
296 295 295 295 297 298 296 295 298 303 304 305 306 307 307 308 308 310 312 312 312 311 314 314 315 315 316 317 318 317 317 316 314 315 313 311 313 316 316 315 313 310 307 302 297 295 296 291 293
292 298 297 295 293 289 296 288 296 299 300 303 305 305 307 308 310 310 311 312 311 312 313 313 314 314 315 317 316 315 313 311 311 313 312 307 307 310 312 313 312 310 308 304 298 298 297 295 293
295 297 296 296 294 293 293 289 294 299 297 300 303 306 308 309 310 310 310 311 312 313 313 313 312 313 314 315 316 315 312 312 315 316 312 307 302 305 307 307 308 307 306 304 300 297 298 297 296
298 296 296 295 293 286 291 291 292 296 298 301 303 305 307 308 309 309 310 310 310 313 312 312 311 311 312 314 315 315 312 313 315 313 308 305 302 300 300 302 304 305 304 302 300 299 300 298 299
297 293 286 285 286 285 292 290 293 298 300 301 302 304 306 306 306 308 307 306 306 308 309 309 309 309 311 312 313 314 313 314 315 312 309 302 298 297 297 298 301 302 303 303 303 300 300 298 299
293 293 288 282 284 287 288 286 292 300 303 303 303 304 305 305 306 306 308 308 307 306 306 307 307 308 309 311 311 312 313 313 314 311 311 308 303 302 299 296 297 300 302 303 302 300 299 298 298
293 289 296 289 288 284 289 293 298 301 299 301 302 303 303 305 307 306 307 308 307 305 305 306 306 307 308 309 310 310 311 312 313 311 310 308 306 304 301 297 295 295 298 300 300 298 297 298 297
294 297 288 288 283 281 286 289 290 297 298 301 301 301 304 305 306 306 307 306 305 305 305 306 306 306 307 308 309 308 309 310 311 310 309 308 305 302 300 296 294 293 295 294 296 294 293 294 293
291 289 291 291 289 284 283 288 298 298 300 300 302 303 303 304 305 306 306 305 304 304 304 305 305 305 306 307 308 307 308 309 309 307 306 305 304 298 294 291 290 290 289 290 291 291 290 290 288
295 292 292 287 285 288 287 287 300 300 301 301 301 303 303 302 303 304 305 304 302 303 303 303 304 305 306 306 306 306 306 307 306 306 304 302 296 292 292 290 288 287 287 288 289 288 288 287 285

GFSSGP_sfc_thetae_072.txt.gz
Theta_e
327 322 319 318 305 302 297 298 302 301 302 303 309 304 302 309 307 306 331 334 336 338 340 343 348 348 347 349 347 346 345 342 341 340 340 340 340 341 342 343 345 345 342 340 337 337 336 336 335
320 319 318 312 300 295 294 300 299 303 306 305 307 305 304 307 321 324 329 338 339 339 338 342 346 348 348 349 347 345 344 341 339 338 338 338 338 340 341 343 345 343 341 337 336 336 335 335 335
320 317 311 306 300 294 294 298 301 305 305 304 304 306 306 311 323 329 336 338 339 338 340 343 346 349 349 348 347 345 344 341 338 337 336 335 337 339 339 342 342 340 337 336 335 335 335 335 335
316 313 309 299 297 298 298 299 305 304 302 304 304 304 311 318 325 333 338 339 338 339 342 343 347 349 348 348 347 346 343 341 339 337 335 334 335 337 338 339 338 336 334 334 334 334 334 334 334
314 310 301 298 297 299 301 303 304 303 302 303 302 302 309 319 328 336 336 338 336 339 343 345 347 348 348 347 347 346 345 342 340 337 334 333 333 335 335 337 335 333 332 331 332 332 332 332 332
306 306 298 295 297 300 301 301 302 301 302 303 301 299 309 321 325 333 336 336 338 340 343 344 341 343 345 346 346 345 345 343 341 337 334 332 333 333 334 334 331 330 329 330 331 331 331 331 331
306 303 297 298 297 298 301 302 299 300 301 301 303 299 309 317 326 334 335 335 338 340 341 342 344 341 338 341 342 343 343 342 341 339 336 334 333 334 334 333 329 327 327 329 330 330 330 331 331
307 304 299 297 297 297 301 302 302 300 300 304 305 299 302 315 324 332 333 333 335 337 338 337 339 342 341 339 335 337 339 339 339 336 333 330 330 330 330 328 328 325 326 327 329 328 329 329 329
307 297 294 297 298 298 302 300 301 302 302 301 306 303 310 318 325 326 328 330 332 336 336 337 338 339 340 341 335 333 334 335 333 330 327 324 322 321 323 324 326 325 325 327 327 327 325 324 325
301 297 298 301 300 299 301 300 301 298 299 299 302 306 313 321 321 323 324 325 327 332 334 336 337 337 339 341 337 338 338 336 333 329 325 326 324 323 322 320 323 324 324 325 326 325 325 320 315
302 298 299 300 302 302 301 299 300 298 296 301 301 304 312 318 319 321 323 325 327 331 334 335 336 337 337 338 340 339 338 336 333 329 327 331 323 320 319 317 316 315 316 317 317 319 316 315 314
297 301 300 303 303 301 299 302 299 300 299 303 302 306 311 316 317 319 322 323 328 331 332 335 337 336 337 338 339 337 338 337 335 332 330 329 324 322 317 316 315 313 311 310 312 313 313 312 311
296 298 299 302 301 299 301 298 299 299 302 304 304 306 307 313 315 318 321 323 324 327 330 333 335 336 337 338 337 337 337 336 336 334 332 331 326 324 320 319 318 316 318 314 312 311 310 308 307
300 300 298 300 300 300 298 298 297 300 303 302 303 302 303 307 312 315 318 320 322 327 328 334 333 336 337 337 336 336 335 337 336 336 335 333 328 326 322 317 318 318 317 313 314 310 306 304 302
300 295 297 298 299 298 299 295 296 300 301 301 301 301 303 304 307 310 315 318 321 324 328 329 333 335 335 332 334 335 335 335 335 334 336 334 330 327 323 317 317 318 317 313 307 305 303 298 297
295 294 289 297 299 298 297 289 298 298 298 299 300 299 301 303 304 306 310 317 320 323 326 328 332 333 332 331 331 330 331 332 333 335 335 334 333 330 325 318 317 319 314 307 303 301 299 297 293
293 287 289 293 299 297 296 292 298 299 297 297 298 299 300 302 303 304 307 311 318 321 325 326 328 328 330 329 328 328 329 329 330 331 334 334 333 330 326 321 318 317 310 306 303 299 298 296 294
288 288 291 290 295 294 293 293 298 300 299 298 299 300 300 301 303 304 305 308 314 318 323 326 327 326 325 325 325 325 325 326 328 328 329 332 333 331 327 325 318 313 309 305 301 298 296 295 294
292 291 290 292 296 293 293 293 295 298 297 296 297 298 299 301 303 305 305 306 309 314 318 324 325 323 323 323 322 321 322 322 324 325 326 328 330 332 327 323 317 313 309 304 301 298 294 293 293
292 290 289 293 296 292 292 292 295 297 297 298 298 298 299 300 301 303 304 304 307 310 315 320 323 322 322 322 322 321 320 318 320 319 320 322 323 326 324 320 315 313 309 305 299 296 293 292 291
291 290 289 290 293 293 289 289 292 297 299 299 300 301 300 300 300 301 303 304 304 306 310 315 319 321 320 320 317 312 311 310 310 312 315 317 318 322 321 318 316 313 310 304 297 295 294 291 292
289 294 293 292 289 283 291 281 289 293 294 297 298 298 299 300 301 302 302 303 304 306 308 310 312 313 315 315 313 312 311 309 310 310 309 312 312 317 319 317 315 313 310 305 298 297 297 294 291
291 295 292 291 287 287 286 283 287 291 290 294 296 298 299 300 301 301 302 303 304 304 304 306 308 308 309 311 311 310 308 308 307 306 305 306 308 312 314 314 313 311 309 305 300 297 297 295 294
296 292 291 289 288 280 286 285 284 288 290 292 294 296 299 300 300 301 301 303 303 304 305 304 305 306 308 309 310 309 309 306 304 305 306 306 305 306 308 310 311 310 309 306 301 299 298 297 297
292 288 280 279 278 279 285 283 287 292 294 293 294 296 296 301 299 300 300 299 299 301 303 304 304 303 305 306 308 309 308 306 305 306 305 304 302 301 303 305 306 307 308 306 302 299 298 297 297
290 289 281 274 277 279 283 281 286 293 294 294 296 297 296 298 299 299 300 301 300 300 301 302 302 302 303 304 306 307 308 306 307 307 306 305 303 304 303 303 304 304 305 304 302 300 299 299 298
289 286 291 283 276 277 283 287 292 294 293 294 295 296 295 297 299 299 300 301 301 299 300 301 301 302 302 303 304 305 306 306 307 306 305 305 303 302 299 300 300 302 303 303 302 300 298 299 298
290 292 284 283 274 273 280 281 285 290 293 294 294 295 297 298 299 300 300 300 299 299 300 301 301 301 301 302 303 304 304 304 305 305 303 302 301 301 298 298 298 298 299 300 301 299 298 297 295
287 286 287 287 284 276 276 281 291 292 294 295 296 297 296 297 297 298 299 298 298 299 299 299 300 300 301 301 302 303 302 303 304 304 302 301 300 298 297 296 296 294 294 296 298 296 294 294 291
290 288 289 282 280 281 281 284 293 294 295 295 295 297 296 297 298 297 298 297 297 297 298 298 299 300 300 301 301 301 301 302 301 301 301 299 298 293 293 291 292 291 292 292 294 292 291 290 288

GFSSGP_sfc_thetae_075.txt.gz
Theta_e
320 314 312 311 299 295 290 293 296 299 297 300 304 303 305 306 308 302 327 331 336 337 341 345 347 349 349 348 347 345 344 341 340 340 340 342 343 343 345 344 344 341 338 337 337 337 337 337 339
317 316 311 303 294 289 289 293 296 299 300 303 305 303 303 306 319 323 324 334 338 338 340 344 345 349 349 348 346 345 344 341 339 339 339 340 342 342 345 343 343 339 337 336 336 336 337 337 338
317 315 303 299 292 288 290 294 298 299 301 300 301 304 306 310 322 325 332 336 338 336 340 343 345 349 349 347 346 344 343 341 338 337 338 339 340 342 344 341 339 337 336 335 336 337 337 337 338
309 306 301 294 291 292 293 297 301 298 300 301 302 303 311 316 327 331 335 336 336 336 341 343 347 349 349 347 345 344 342 339 337 336 336 338 339 340 340 338 336 335 334 334 335 336 336 336 339
307 302 295 293 291 292 296 301 302 299 298 298 300 301 307 320 332 334 334 336 336 338 340 343 346 347 348 347 346 344 342 340 337 335 335 337 337 338 338 335 334 333 333 333 334 335 334 334 336
300 299 292 290 291 295 295 299 301 297 299 299 298 303 307 321 329 331 334 334 341 339 342 344 340 342 344 346 345 344 343 341 337 335 334 335 335 336 335 333 332 331 331 332 332 333 333 334 334
299 296 290 293 292 293 296 299 297 297 299 299 301 300 309 317 325 332 332 336 341 342 343 342 342 340 338 340 341 342 342 341 338 336 335 336 336 336 333 331 329 330 331 331 331 332 333 333 333
300 297 292 292 292 292 297 298 299 298 297 302 303 299 304 314 325 331 331 334 338 338 341 340 340 340 340 339 335 336 338 339 337 334 332 330 331 332 331 328 329 329 330 330 330 330 330 330 330
300 292 290 291 293 294 298 296 299 299 300 299 302 304 308 318 327 328 326 326 335 336 337 338 338 339 339 338 334 332 333 333 331 328 325 322 322 322 322 324 327 328 329 329 329 327 327 326 326
296 290 292 295 294 294 298 297 298 295 297 297 300 304 313 319 321 323 323 323 329 331 334 336 337 338 339 340 334 335 334 333 329 325 321 321 320 320 321 320 324 327 327 328 327 326 323 318 314
297 293 296 296 298 298 297 296 299 296 293 297 299 303 315 316 317 320 322 323 326 329 332 335 337 338 339 339 337 336 335 332 328 324 323 322 320 319 318 316 315 316 318 319 320 315 314 312 312
292 298 297 300 300 298 296 298 295 296 297 300 300 306 313 314 316 318 320 322 324 326 330 334 336 335 337 339 338 337 335 333 328 324 325 322 318 316 315 314 313 312 312 311 311 311 310 308 309
293 294 296 299 298 296 298 295 295 296 299 299 303 306 313 314 315 316 320 321 325 326 328 331 335 336 336 338 338 337 336 334 331 327 327 324 319 315 314 313 313 310 309 310 310 309 307 305 306
296 296 295 297 297 297 295 294 295 297 298 298 300 302 308 312 314 314 316 321 321 328 329 331 333 335 336 336 337 335 336 335 334 331 329 326 323 317 315 314 313 311 312 311 309 307 304 302 303
297 292 294 295 296 295 296 290 294 296 298 298 298 298 301 306 311 314 317 318 322 324 329 330 332 334 335 336 337 335 335 335 334 333 331 329 326 320 318 316 314 314 313 313 310 307 301 300 298
292 290 286 293 296 296 293 286 294 296 296 297 296 295 298 299 303 309 313 317 317 320 324 330 332 332 333 335 335 334 335 334 335 334 333 332 328 325 319 316 315 314 311 308 307 302 298 294 295
288 283 286 290 295 295 292 288 296 298 296 294 294 296 297 297 299 301 306 313 316 319 324 326 331 330 330 331 333 329 331 332 333 334 333 332 329 327 321 318 316 313 308 305 303 299 298 294 292
285 285 287 286 293 293 290 291 294 297 296 296 296 296 297 297 299 302 303 306 314 317 321 326 328 330 330 329 329 326 325 327 330 331 332 332 331 328 324 320 317 315 308 303 302 298 296 294 292
289 288 286 288 294 292 290 290 293 295 294 292 293 294 296 297 301 301 302 304 307 314 318 324 325 326 328 325 325 326 326 325 321 326 327 330 331 329 325 322 317 313 308 304 301 297 295 293 292
290 287 286 289 293 290 290 290 292 293 295 297 296 293 294 295 297 300 300 300 303 311 316 321 324 324 327 328 327 326 324 318 325 320 322 327 330 329 326 323 317 313 309 303 300 297 294 292 292
289 287 286 288 289 289 287 285 289 293 294 296 295 296 296 297 297 297 298 299 302 305 312 317 322 323 325 325 319 314 314 311 313 315 319 319 324 328 326 322 318 314 310 304 300 297 295 292 292
287 291 291 289 286 282 288 279 286 291 293 292 295 295 296 296 297 298 299 298 299 305 310 315 319 321 322 320 319 319 319 317 320 321 316 311 315 321 323 321 318 315 312 306 301 299 298 296 291
289 292 290 289 285 283 283 280 285 287 288 291 293 293 294 296 296 297 299 299 300 301 303 308 312 315 318 319 318 317 317 317 305 305 306 306 306 314 318 318 317 315 313 308 303 299 299 298 295
294 291 290 287 284 278 283 283 281 285 289 289 291 293 296 297 299 298 300 300 300 299 301 303 306 308 310 316 313 312 313 305 303 302 303 302 304 308 312 312 315 315 313 309 304 300 299 298 298
291 286 278 277 276 276 282 280 284 289 290 291 292 292 292 299 297 297 298 299 297 299 300 301 302 304 304 305 307 306 306 305 305 304 305 302 303 305 308 310 312 312 312 308 305 301 300 298 298
288 286 279 273 276 278 282 280 286 291 293 293 293 293 292 293 296 296 297 298 298 297 300 301 301 301 302 303 304 306 306 307 307 305 305 305 305 304 306 307 310 311 310 308 305 302 300 300 298
287 284 288 282 272 276 280 284 290 292 292 293 293 294 295 296 297 298 298 297 298 297 298 300 300 300 301 301 302 303 305 305 305 304 304 305 304 303 304 305 306 306 306 306 304 302 299 299 298
289 291 283 281 272 271 278 279 283 288 290 293 293 294 294 295 295 297 297 297 297 297 298 298 299 299 300 300 301 302 303 304 304 303 303 303 303 302 300 302 304 304 304 304 303 301 300 298 298
286 285 286 286 282 275 274 279 287 289 293 293 293 294 295 296 296 296 297 297 297 297 298 298 298 299 299 299 300 300 301 302 302 303 302 302 300 300 298 297 299 300 301 301 301 301 299 298 298
287 286 287 280 278 280 279 283 290 292 292 294 294 296 297 297 296 295 296 296 296 296 296 297 298 298 299 299 299 299 300 300 300 301 300 299 299 296 297 295 296 297 298 299 299 298 297 296 295

GFSSGP_sfc_thetae_078.txt.gz
Theta_e
317 312 309 309 298 293 288 291 295 297 296 299 302 304 303 306 305 297 325 331 333 336 342 343 347 350 348 346 345 344 342 341 341 342 344 343 346 345 343 340 339 337 337 337 338 338 338 339 338
315 314 309 300 293 286 287 291 295 297 299 302 303 302 305 307 318 320 323 331 335 336 342 343 345 349 347 346 345 344 341 340 340 340 342 342 345 344 342 339 337 337 336 337 338 338 338 339 340
315 311 303 297 289 287 288 293 296 297 299 298 300 305 306 312 320 321 327 334 336 336 342 342 346 348 347 346 345 343 342 339 339 339 341 341 345 343 340 338 336 335 335 337 338 338 338 338 338
308 304 299 292 288 291 293 296 298 298 297 300 302 304 309 317 323 327 333 336 334 335 340 342 347 348 346 345 343 340 339 338 337 338 339 341 342 340 338 337 335 334 335 337 337 337 338 338 337
304 299 293 290 288 291 294 298 298 296 296 297 301 301 308 321 327 331 333 335 332 335 339 342 345 347 346 345 342 341 340 337 336 337 338 339 340 338 336 335 334 334 334 336 336 335 337 338 337
298 297 291 288 288 292 293 299 299 295 295 297 302 304 309 320 329 331 333 333 335 337 340 342 339 342 344 344 343 342 341 338 337 336 337 337 338 336 335 333 332 333 333 335 334 335 335 335 333
297 293 289 291 291 291 295 297 296 296 297 297 301 302 307 316 328 330 333 336 337 339 340 341 341 340 338 340 340 341 341 338 337 337 337 337 337 335 333 332 331 331 332 333 333 334 334 333 332
299 296 291 292 290 291 295 296 297 296 297 300 304 302 304 314 324 329 334 338 337 339 340 339 339 340 340 338 334 335 337 336 335 335 333 332 332 331 330 329 331 331 331 332 332 332 332 332 330
298 292 288 289 291 293 295 295 296 298 298 298 300 304 307 318 325 326 326 332 335 336 338 338 337 338 338 337 333 331 333 332 330 328 326 323 324 322 320 324 330 330 330 330 330 330 328 326 324
295 290 291 293 292 293 295 295 297 295 295 296 298 305 313 320 323 324 322 324 327 331 333 336 337 337 336 338 333 333 333 330 325 323 320 320 319 319 320 320 326 328 328 329 327 326 322 317 312
294 291 295 294 295 296 296 293 296 295 292 297 299 305 313 318 321 324 322 323 328 330 332 334 336 337 336 336 334 333 333 328 324 320 319 318 318 317 316 316 318 319 320 319 316 313 312 311 311
292 295 296 298 298 296 295 296 294 295 296 299 300 309 314 318 320 323 324 321 324 325 330 333 335 335 336 337 334 335 333 329 324 320 321 318 316 314 313 313 313 314 314 313 311 309 309 309 309
292 293 295 298 297 296 296 293 293 295 298 297 299 310 313 317 318 321 324 322 323 325 328 332 334 335 337 337 336 335 334 330 326 321 324 319 316 314 312 311 311 311 310 310 309 307 306 306 305
294 294 294 296 295 295 293 291 293 295 296 296 300 306 312 313 314 313 316 320 322 326 328 331 332 333 336 337 337 336 335 333 327 323 324 320 318 315 313 311 310 309 308 309 307 305 303 303 303
295 291 291 293 294 293 294 289 292 294 295 295 297 299 305 310 312 313 318 321 322 326 328 329 331 333 333 335 337 336 335 334 331 326 326 324 320 315 314 312 311 309 310 309 307 304 301 299 300
290 289 284 290 294 294 290 286 290 295 292 294 294 293 296 301 309 313 315 318 320 321 325 328 331 331 332 333 335 335 336 334 333 330 328 327 323 318 316 313 313 313 310 308 305 302 300 298 298
288 281 284 288 294 293 290 287 292 295 294 294 293 294 294 296 297 302 311 315 318 320 323 326 329 330 330 331 333 333 334 334 334 333 330 329 326 321 318 316 315 314 310 308 305 300 299 296 293
284 283 285 284 291 290 288 289 293 295 292 294 294 294 294 295 297 300 301 309 315 317 320 325 329 330 330 330 330 329 332 332 333 333 333 331 328 324 320 318 316 314 309 306 304 300 296 295 293
287 285 284 287 292 290 289 289 292 294 293 292 292 292 293 295 300 298 298 300 305 311 314 321 326 329 329 328 326 326 326 330 328 331 332 332 329 326 322 319 317 314 309 306 303 298 294 292 292
287 285 284 287 291 289 288 289 291 292 293 293 293 292 292 293 295 298 298 297 299 306 313 319 323 327 328 329 329 329 328 326 328 328 327 331 331 328 325 321 317 315 310 305 301 299 295 292 292
287 286 285 286 287 287 286 284 286 290 292 294 294 294 293 294 294 295 295 296 296 299 308 315 322 325 328 329 326 315 314 312 315 316 323 326 329 329 326 323 319 316 312 305 302 298 297 292 291
285 290 289 287 284 280 285 278 284 289 291 291 292 289 292 293 294 295 296 295 295 299 302 311 318 322 326 327 324 323 323 321 322 324 320 318 321 328 326 324 320 316 313 308 303 301 299 297 291
288 291 288 287 284 282 282 280 283 286 288 290 291 291 294 295 293 295 296 298 297 297 299 305 311 317 321 323 323 322 322 322 312 309 311 309 312 316 324 323 319 316 314 311 305 301 300 298 296
293 290 288 285 282 277 281 281 280 284 286 288 291 293 293 295 295 296 298 298 297 298 297 302 309 312 315 319 318 318 319 312 305 304 306 306 307 313 313 316 319 317 315 312 307 304 301 300 300
289 284 277 277 275 276 280 279 282 288 289 289 291 291 292 292 294 295 296 296 296 296 298 298 302 306 307 312 312 311 314 309 308 306 306 302 303 305 311 311 313 315 315 313 309 305 302 302 300
286 284 278 272 274 277 281 279 285 289 290 290 292 291 293 295 295 296 296 296 296 297 298 300 299 300 302 304 306 306 308 309 309 306 304 305 306 307 305 307 311 314 314 313 309 306 303 302 301
287 283 286 280 270 275 279 283 289 290 290 293 293 294 293 295 295 296 297 297 297 297 297 298 299 299 299 300 301 302 303 304 305 303 304 305 304 304 301 304 305 307 311 311 310 306 303 303 301
287 290 282 281 272 270 277 278 282 286 288 292 293 293 294 295 296 296 296 297 297 297 297 297 298 298 299 299 299 300 302 303 304 303 303 302 303 301 300 301 303 305 307 308 308 307 305 302 301
286 284 285 284 280 273 272 278 286 288 291 291 292 294 294 294 294 295 296 296 295 295 296 296 297 298 298 298 298 298 299 300 301 303 303 303 300 300 300 301 303 303 304 305 305 305 304 300 300
288 286 286 280 277 278 279 281 289 291 291 292 292 293 293 294 295 294 294 295 295 295 295 296 296 297 298 298 298 298 298 299 299 300 300 299 299 297 299 297 299 300 301 302 302 302 302 299 297

GFSSGP_sfc_thetae_081.txt.gz
Theta_e
316 310 308 307 298 292 288 290 294 295 296 298 301 300 300 304 300 293 322 329 333 335 340 343 346 348 345 345 344 344 341 341 343 343 346 346 344 342 340 338 337 336 338 339 339 338 339 338 336
313 312 307 299 292 286 287 290 295 296 299 304 304 302 304 304 317 319 323 330 334 337 341 342 345 347 345 345 344 343 341 340 342 342 344 346 344 341 339 338 336 336 337 338 338 339 339 337 335
313 307 302 295 287 286 287 290 294 295 298 297 299 305 307 309 316 321 324 331 334 338 341 342 346 347 344 344 343 342 340 340 341 342 343 345 343 340 338 336 335 336 337 337 337 338 338 336 335
306 303 298 290 286 289 290 293 295 296 296 299 301 303 309 319 320 323 329 333 333 337 340 342 346 347 345 344 341 340 339 339 339 341 343 344 342 339 337 335 335 335 336 336 337 338 337 336 336
302 298 292 289 289 291 293 297 296 295 295 296 303 300 307 319 326 329 332 333 331 335 338 342 345 345 345 343 341 340 339 338 338 339 341 341 339 337 336 334 334 335 336 335 336 339 337 337 336
298 296 290 287 288 290 295 296 296 293 294 296 302 305 310 319 325 328 333 331 332 335 338 342 339 341 343 343 342 341 340 338 338 339 339 339 337 336 335 333 333 334 336 333 335 337 336 334 333
297 292 289 289 288 290 294 297 293 295 295 297 305 301 306 314 326 329 331 330 332 336 338 340 341 339 337 339 339 340 339 338 338 339 339 339 337 336 334 333 332 333 334 334 335 335 333 333 331
298 295 289 290 290 290 293 295 296 296 297 298 306 300 303 317 327 328 331 332 333 335 337 338 338 339 338 337 333 335 336 336 336 336 334 332 332 332 332 330 332 332 333 332 333 333 332 331 330
297 291 288 290 290 292 294 294 294 296 297 300 300 304 306 321 326 327 331 330 332 335 336 337 337 337 336 335 331 330 331 331 331 329 327 325 323 322 322 325 330 333 332 331 331 331 329 327 326
294 290 291 292 292 292 295 293 296 296 295 297 299 306 312 320 324 324 325 326 330 332 334 336 337 337 335 337 332 331 330 327 325 324 323 322 319 318 320 322 326 329 329 330 330 327 322 316 312
293 291 294 293 294 295 296 292 295 294 293 296 298 302 313 317 320 323 323 326 328 332 334 335 336 336 335 336 334 331 329 324 322 320 319 319 317 316 316 318 319 319 319 318 317 314 312 311 310
291 294 294 296 296 295 295 295 292 293 295 296 299 305 313 317 321 322 323 321 324 327 331 334 335 335 335 335 334 334 332 324 320 318 318 317 315 314 313 315 315 316 314 311 310 310 309 309 308
291 292 294 296 295 293 295 293 293 294 296 295 297 308 313 318 322 324 324 322 323 325 329 331 333 334 335 334 334 333 332 327 322 319 319 317 314 313 312 312 313 313 312 309 308 307 307 306 306
293 293 292 294 294 294 292 290 291 291 294 294 298 305 311 314 318 314 317 320 321 326 327 330 331 333 335 334 334 333 332 331 324 320 320 317 316 313 312 310 311 310 310 308 306 305 305 304 304
293 289 290 291 293 292 293 288 291 291 291 293 295 297 306 310 312 314 320 322 322 325 327 328 331 333 333 334 334 335 334 332 327 321 321 319 316 314 312 310 309 309 308 308 305 303 301 300 301
289 287 283 287 292 292 289 285 289 292 291 292 292 292 295 302 309 312 314 317 320 321 324 328 331 331 332 333 334 335 335 333 330 325 323 322 320 317 314 313 312 312 311 308 304 303 301 299 301
286 280 283 287 292 292 289 286 290 293 292 292 292 292 293 294 297 303 311 313 316 319 322 325 329 329 330 331 332 332 333 333 332 330 324 325 322 318 316 314 313 312 311 309 306 302 301 297 296
283 282 283 283 289 289 288 289 292 293 292 293 292 292 293 293 295 298 301 310 314 315 320 325 327 329 329 330 329 328 330 331 333 332 329 325 325 321 317 316 314 313 311 308 305 301 298 296 295
285 284 284 285 291 288 288 288 291 293 291 291 291 292 292 293 298 296 297 298 306 311 314 319 323 327 328 328 326 326 327 329 331 332 331 329 326 323 319 317 314 313 310 309 305 300 295 292 292
286 284 284 286 290 289 286 288 290 291 292 292 292 292 291 291 293 294 295 295 296 304 311 315 320 325 327 329 329 329 328 327 329 331 331 331 329 326 321 319 316 314 311 308 304 298 295 292 291
284 284 283 285 286 286 284 283 284 288 289 292 292 291 292 292 293 293 293 293 294 295 301 311 317 321 326 328 326 316 315 314 317 322 328 329 329 328 325 322 318 315 313 308 305 301 299 294 292
284 289 288 286 284 279 284 277 283 286 288 289 290 289 290 292 291 293 294 294 294 294 296 303 311 318 324 326 325 324 324 323 324 325 323 325 328 328 327 324 321 317 314 310 306 304 302 301 293
287 289 287 285 282 281 280 279 282 284 285 288 289 291 291 293 293 294 295 296 296 297 295 296 306 314 318 324 326 323 323 325 318 314 315 314 320 326 327 325 322 319 316 313 308 305 302 302 300
291 287 285 283 280 276 279 279 279 282 284 286 288 290 291 292 294 295 296 296 296 296 297 298 303 309 314 319 320 321 322 316 309 308 311 309 313 319 318 323 323 320 316 314 309 306 303 303 303
287 284 277 276 275 275 279 278 281 286 286 287 288 290 292 293 294 295 296 296 296 296 297 298 300 303 308 311 312 313 315 314 312 309 310 305 306 308 317 314 316 318 317 315 312 307 304 303 302
285 284 278 271 272 275 280 278 283 287 289 291 291 291 292 293 293 294 295 295 296 296 296 297 298 299 301 305 308 308 310 309 310 307 306 308 309 310 310 314 317 316 316 315 312 309 306 304 303
286 282 284 279 269 274 278 281 287 288 291 291 292 293 293 294 294 294 295 295 294 295 296 296 297 298 299 299 301 303 304 305 306 305 304 306 304 304 303 306 310 314 314 313 312 309 306 305 303
286 289 282 279 271 269 276 277 281 285 289 290 291 292 293 293 294 295 295 295 295 295 295 296 296 297 297 298 298 299 300 301 302 302 302 301 301 301 300 300 302 303 305 308 311 310 308 305 304
285 284 283 284 280 273 271 277 285 287 290 290 291 291 292 294 294 293 294 295 295 295 295 295 296 296 297 297 297 297 298 298 299 299 300 300 299 299 299 299 299 300 301 302 304 306 307 305 304
286 285 285 279 277 277 278 279 287 290 290 291 291 291 292 292 293 293 294 294 294 294 295 294 294 295 296 297 297 297 297 297 297 298 298 298 299 297 299 297 298 300 302 303 303 303 304 303 301

GFSSGP_sfc_thetae_084.txt.gz
Theta_e
315 310 307 305 297 291 287 289 293 294 294 297 303 301 302 304 303 293 320 328 332 335 341 344 347 346 343 343 342 343 344 344 344 347 346 344 342 340 339 337 339 341 339 338 340 338 337 336 336
312 310 306 298 290 285 286 291 293 295 298 304 303 303 304 301 314 317 322 329 333 337 340 342 345 346 344 344 344 343 342 343 342 346 346 343 341 338 338 336 338 340 338 339 340 339 337 335 335
310 306 302 294 286 285 286 289 293 294 299 296 301 305 304 306 313 319 323 331 335 337 339 342 344 346 344 345 343 341 342 343 343 344 344 343 340 337 337 335 337 339 337 338 340 337 337 335 334
306 303 298 290 285 290 290 291 295 295 298 299 302 301 307 317 319 323 328 332 335 336 339 342 345 345 343 343 341 340 340 341 342 343 344 342 339 336 336 335 337 338 338 338 338 338 336 335 336
301 298 292 288 289 291 291 294 296 294 296 299 301 298 306 317 324 325 329 332 333 335 338 342 344 345 344 342 341 340 340 339 341 343 343 340 337 335 334 334 335 334 335 335 339 338 337 337 336
297 295 289 286 287 290 295 295 295 294 293 298 302 305 308 316 323 326 330 328 334 334 338 341 338 340 342 342 341 341 340 340 340 341 341 337 336 335 334 334 334 334 333 337 339 338 336 335 335
295 292 288 288 287 290 293 296 293 294 294 297 306 303 303 312 324 328 328 328 332 335 337 339 338 337 336 338 338 339 339 339 340 340 338 335 334 336 334 334 335 332 333 335 336 335 334 334 332
297 293 288 288 288 288 293 295 293 294 295 298 306 298 299 315 324 327 327 327 330 332 335 338 337 336 335 334 332 334 335 336 337 336 334 332 332 332 332 330 333 333 332 333 333 334 333 332 330
297 291 288 290 289 291 291 293 292 295 295 298 299 302 305 321 325 325 324 326 328 332 334 337 338 336 334 333 330 330 331 331 331 330 327 324 323 323 323 326 331 332 331 333 332 331 330 328 327
294 289 291 292 291 291 293 293 294 296 296 297 299 303 311 321 324 323 323 324 328 329 333 335 336 336 334 335 331 330 328 327 326 324 323 322 319 319 321 322 327 329 328 332 330 328 323 317 313
292 290 292 292 293 295 295 291 294 294 293 296 297 300 313 317 321 323 324 325 327 330 332 333 334 335 336 335 332 329 326 323 322 321 320 319 316 316 318 319 319 319 320 320 320 315 312 311 311
293 292 292 295 295 294 294 294 292 293 296 295 297 302 312 317 320 322 322 322 325 330 331 333 334 334 335 335 333 333 329 322 319 319 319 316 314 313 314 316 315 315 313 311 310 310 309 309 310
290 290 293 294 294 293 295 293 292 293 295 294 296 306 312 318 320 322 322 321 323 327 331 332 333 333 334 334 333 332 331 324 320 318 318 316 314 312 312 313 313 313 311 309 308 308 308 307 307
293 291 292 293 292 292 290 290 293 292 292 292 296 301 309 314 317 315 318 320 321 326 328 331 332 333 333 332 332 332 331 329 321 317 317 316 315 312 311 311 312 311 310 308 307 306 305 305 305
292 289 289 289 292 290 291 287 290 292 291 291 293 294 302 309 309 316 321 321 322 324 325 327 331 332 332 332 332 332 332 331 326 319 318 317 315 313 311 310 310 310 309 308 305 304 303 302 302
288 286 284 286 291 290 288 284 288 291 292 291 290 291 294 298 308 311 315 317 319 320 323 326 330 331 332 332 332 332 332 331 329 324 320 318 318 316 314 313 313 312 312 309 306 305 303 303 303
285 280 282 285 291 290 287 285 289 291 292 291 291 291 292 293 295 301 310 313 315 319 320 324 328 329 330 331 332 332 332 331 329 326 322 322 320 318 316 314 314 313 311 309 306 303 303 300 299
282 281 282 281 286 289 287 288 290 291 291 292 292 291 291 292 294 295 297 307 312 314 318 323 326 328 329 330 329 329 331 330 329 327 324 323 321 319 317 315 313 312 311 308 306 301 299 298 299
284 284 282 284 289 287 286 287 290 292 290 291 291 291 291 292 295 294 295 295 303 309 313 318 322 326 328 328 327 327 328 329 330 330 327 323 323 321 318 317 314 312 310 310 306 300 297 294 294
284 283 283 285 289 288 285 287 289 290 291 291 291 291 291 290 292 293 293 292 294 300 309 314 320 323 326 328 329 328 328 328 329 330 330 327 324 322 319 318 315 313 311 309 305 302 296 294 294
284 283 283 283 284 284 283 283 284 287 287 289 290 289 289 289 289 291 292 292 291 292 295 307 313 319 324 327 324 315 316 315 322 327 328 328 327 325 323 320 318 314 313 309 307 304 302 298 291
282 288 286 285 283 280 283 276 282 285 287 287 288 289 290 291 292 293 294 294 294 295 293 295 305 312 317 322 322 322 324 322 324 326 328 328 328 328 325 323 320 317 314 312 308 306 305 305 296
285 288 286 284 281 281 279 278 282 282 283 287 288 288 290 292 292 294 294 294 294 295 296 296 297 305 313 318 323 322 322 323 319 316 318 324 325 327 327 325 322 319 317 314 312 308 305 306 304
289 286 284 281 279 276 278 278 279 281 284 286 287 290 291 292 293 294 294 295 295 295 296 297 301 304 309 314 317 318 320 317 311 310 312 316 320 323 325 324 324 321 319 316 313 310 307 306 307
285 283 277 275 274 274 277 277 280 283 285 285 288 290 291 291 293 293 294 294 295 295 295 296 297 299 304 309 311 313 314 313 312 310 310 307 311 311 319 319 321 322 320 318 315 311 308 306 306
284 283 278 271 271 275 279 277 281 285 289 289 291 290 291 292 292 293 294 294 294 294 295 295 296 296 298 301 305 307 309 310 310 309 307 308 308 312 315 316 318 318 319 317 315 312 308 306 305
285 281 283 278 268 273 277 280 285 287 288 289 290 291 291 292 292 293 293 293 293 293 294 294 295 296 296 297 297 299 301 303 304 305 304 305 304 305 305 307 314 315 315 315 315 312 308 307 305
286 287 281 278 270 269 275 277 279 285 287 288 289 290 292 292 293 293 293 293 294 293 293 294 294 294 295 296 296 297 297 298 298 299 300 300 301 301 300 301 302 306 311 313 313 312 309 306 305
284 283 282 282 279 273 270 277 283 287 288 288 289 291 291 291 291 292 293 293 294 294 294 294 294 294 294 295 295 295 296 296 296 296 297 297 298 298 298 298 298 299 300 302 306 308 309 306 304
284 284 284 279 276 276 277 278 287 290 289 290 290 290 290 290 292 292 293 293 293 293 293 293 293 293 293 293 294 294 295 295 295 296 296 296 296 296 296 296 296 297 298 298 299 301 303 304 304

GFSSGP_sfc_thetae_087.txt.gz
Theta_e
317 312 312 308 302 295 292 295 300 300 300 304 310 310 309 309 307 299 325 331 334 339 342 346 347 346 345 345 346 347 347 346 348 347 345 343 341 339 338 339 339 341 340 339 338 337 337 338 339
314 311 309 302 295 290 291 295 297 300 303 307 306 308 308 306 320 320 325 331 337 340 343 345 344 346 345 344 345 345 346 346 347 346 343 342 338 338 338 339 341 340 340 340 338 336 336 336 337
312 307 304 296 290 290 290 294 298 300 305 303 306 309 310 311 320 323 328 333 338 340 343 344 344 346 344 345 344 344 344 345 346 345 343 340 337 337 337 338 340 338 340 340 338 336 335 335 335
308 305 300 295 294 294 294 296 299 300 301 303 307 306 313 321 323 326 330 335 337 340 343 343 345 346 344 344 342 342 344 344 344 345 342 339 336 336 336 339 339 339 339 339 338 336 335 336 336
303 301 295 293 293 294 294 299 299 299 300 303 305 304 313 322 327 328 332 335 336 339 343 343 343 344 344 343 341 342 343 343 344 344 341 338 336 335 335 337 337 335 337 338 337 337 337 337 337
300 298 292 290 292 294 298 299 299 299 300 302 306 309 314 322 325 329 332 335 337 338 343 343 338 340 342 342 342 342 342 343 343 343 340 337 335 335 334 335 335 333 339 339 338 337 336 336 336
298 295 292 291 291 295 298 298 297 298 299 301 309 306 310 318 327 330 331 335 337 339 341 342 342 339 335 337 338 339 340 341 342 342 337 335 333 336 336 336 335 332 335 338 336 336 335 335 334
298 296 292 291 291 293 296 298 298 299 299 305 309 302 305 320 328 329 330 332 335 337 339 340 340 340 339 339 332 334 335 337 338 336 333 331 331 333 332 331 334 334 334 336 335 333 334 332 332
300 293 291 292 291 294 295 297 297 299 300 300 307 305 311 323 328 327 327 328 332 334 336 337 338 338 338 338 333 330 331 332 331 331 327 327 331 330 329 327 331 331 332 333 332 332 331 329 328
297 292 293 295 294 294 295 296 297 298 298 299 301 306 317 324 326 325 324 324 328 329 333 335 337 337 337 336 335 335 333 334 333 332 330 328 327 327 327 325 327 329 328 332 331 328 324 322 324
295 293 294 294 295 296 296 295 297 297 295 299 300 303 317 321 324 324 325 326 327 330 331 333 335 336 336 335 334 334 332 330 330 329 328 325 323 325 327 328 328 328 323 326 325 323 321 321 322
293 294 294 297 296 295 295 296 295 296 299 298 300 305 317 320 322 323 324 326 328 330 331 332 334 335 335 335 333 333 330 328 327 327 326 323 321 323 324 325 326 325 325 324 321 319 319 319 319
293 293 294 296 295 294 295 294 294 295 297 297 299 308 316 320 322 324 326 326 328 329 331 332 334 334 335 334 334 333 332 328 326 325 325 323 320 320 322 323 323 323 321 320 317 317 317 316 316
294 293 294 294 294 294 292 291 293 294 295 295 298 302 310 318 320 320 322 324 325 330 331 333 333 334 335 334 333 332 332 331 326 324 324 322 321 319 320 321 321 321 319 317 316 316 316 315 315
293 291 291 292 293 292 293 290 292 293 293 294 295 296 302 310 316 321 324 324 325 328 331 332 332 334 333 334 333 333 333 332 327 324 323 322 321 319 318 319 319 320 318 315 312 311 312 312 312
289 288 286 289 292 292 291 287 289 293 292 293 293 294 295 298 309 315 320 323 324 325 327 331 331 332 333 333 333 333 333 332 330 326 323 321 320 318 316 315 316 316 315 313 310 309 307 307 307
285 283 284 286 291 291 289 287 290 293 293 293 293 294 294 294 296 299 311 318 322 324 326 328 331 331 331 332 332 332 332 331 331 330 325 322 320 320 318 316 316 315 315 314 309 307 308 305 305
283 282 282 283 288 289 288 289 291 293 292 293 293 293 293 294 296 297 298 305 315 319 323 327 329 331 331 331 331 331 331 330 331 328 325 324 322 319 317 317 315 314 313 312 311 309 307 305 308
285 283 283 285 290 289 287 288 290 292 292 292 293 292 293 293 295 295 296 297 299 311 317 322 325 329 330 329 328 328 327 329 329 329 327 325 324 322 320 319 316 315 312 312 311 307 303 302 300
285 283 283 286 289 289 287 288 290 291 291 292 291 291 292 291 292 293 295 295 297 300 309 315 321 325 329 330 331 330 329 329 330 330 329 326 325 323 321 320 317 316 315 311 309 305 300 304 299
283 284 283 284 285 285 283 284 285 288 289 290 289 290 292 292 293 294 296 296 297 296 296 307 315 321 326 329 328 322 323 322 328 328 328 328 325 324 322 320 319 316 315 312 310 308 305 302 296
282 287 286 285 283 280 283 278 284 285 288 288 289 289 291 293 295 295 295 296 297 298 299 297 302 312 319 326 326 326 326 324 327 328 329 328 327 325 324 322 320 318 315 314 311 310 309 307 301
285 287 286 284 282 281 281 280 283 283 285 287 289 291 293 293 294 295 295 296 297 298 299 302 303 304 310 319 325 323 325 326 324 323 324 327 327 328 326 324 322 320 317 316 314 311 308 308 308
288 286 284 282 280 276 279 279 280 282 285 286 290 292 293 293 294 295 296 296 297 298 298 300 302 303 311 315 319 321 322 321 318 318 318 321 325 325 325 325 324 321 320 318 315 313 311 309 308
286 283 277 276 275 275 278 278 281 284 286 289 291 292 292 293 293 294 294 295 295 296 297 298 299 299 301 308 313 316 318 318 318 317 316 314 313 314 320 321 321 322 321 320 317 314 311 308 308
284 283 279 273 272 275 279 278 282 286 288 290 291 291 292 292 293 293 294 294 294 294 295 296 297 297 298 300 301 305 308 311 312 312 312 313 313 315 317 319 319 320 319 319 318 315 313 311 308
285 282 283 277 268 273 278 281 285 288 288 289 291 291 291 292 292 293 294 294 294 294 294 295 296 296 297 297 298 299 300 301 302 303 305 307 308 308 309 309 312 315 315 317 317 314 312 310 308
285 286 281 278 270 269 275 277 280 285 287 289 290 291 291 291 293 293 294 294 294 294 294 294 294 294 294 295 297 297 298 299 299 300 300 300 301 302 303 304 304 306 310 312 313 313 312 309 308
284 283 282 282 279 272 270 277 282 288 289 288 290 290 291 291 292 293 293 293 293 293 293 293 292 292 292 293 294 295 295 296 297 297 297 298 298 299 299 300 301 301 302 304 306 308 309 308 308
285 284 284 279 275 275 276 278 286 290 289 290 290 290 291 292 292 292 292 292 292 292 292 291 291 291 290 291 292 292 292 293 293 293 294 295 295 296 296 297 297 298 299 301 300 301 303 304 304

GFSSGP_sfc_thetae_090.txt.gz
Theta_e
322 320 323 319 308 307 299 301 308 306 308 312 318 315 312 315 308 306 332 335 338 339 345 345 346 345 345 346 348 348 349 348 347 345 343 340 339 340 339 339 342 341 338 338 338 339 339 340 339
320 317 321 315 304 297 298 303 305 308 309 315 313 313 311 310 323 326 330 335 338 342 343 343 344 346 344 344 347 347 348 348 346 344 341 339 338 339 339 338 341 343 340 337 337 337 337 336 337
317 315 314 309 305 298 298 303 308 307 311 311 310 315 314 314 324 328 333 336 339 342 345 344 344 346 343 343 344 345 347 348 347 343 339 338 337 338 339 339 340 341 339 337 336 336 336 335 336
317 316 311 304 299 300 300 304 307 309 307 308 313 310 319 326 327 331 335 337 337 343 344 342 345 345 344 343 343 344 346 346 345 342 339 337 336 337 338 339 338 342 339 338 335 336 335 335 336
315 313 304 301 299 300 302 304 308 307 307 308 311 308 315 326 331 333 334 335 336 341 344 343 344 345 344 343 342 343 344 345 346 342 339 337 336 337 337 338 338 340 338 337 337 337 338 337 336
310 311 301 299 299 301 304 306 307 307 307 309 309 311 316 330 329 333 334 335 338 341 344 342 338 340 342 343 343 343 344 345 344 341 338 336 335 336 336 335 335 340 339 338 338 337 336 336 335
308 306 301 300 299 301 303 307 306 306 306 307 314 308 317 327 331 334 334 336 339 342 343 343 341 339 336 338 339 340 342 343 343 340 338 337 337 337 337 337 335 337 339 337 336 336 336 336 334
310 308 299 300 298 298 305 305 305 306 305 311 316 305 310 327 333 334 334 335 337 340 342 342 341 339 339 339 332 334 337 338 338 335 333 331 332 333 332 332 334 333 337 336 334 334 334 333 332
307 302 299 300 298 300 303 303 303 306 306 309 313 311 319 332 333 332 331 334 336 337 340 341 341 339 338 338 334 331 332 333 332 331 327 328 333 332 331 329 331 332 333 334 334 332 331 330 329
306 302 302 304 304 303 303 305 305 304 304 305 308 312 324 331 331 329 329 330 332 334 336 337 339 340 338 336 338 337 336 337 337 337 336 334 332 331 329 327 327 328 328 333 332 329 324 325 330
303 301 302 301 301 303 304 302 305 304 302 306 307 309 322 329 329 328 328 330 331 334 335 335 337 338 339 337 338 337 336 336 336 336 335 333 330 330 330 331 330 330 324 328 327 327 328 326 328
300 299 301 300 301 301 302 303 302 304 305 306 308 311 322 327 328 327 328 329 331 333 335 335 336 336 337 338 337 338 336 335 334 334 334 331 329 329 329 329 330 329 328 327 328 327 327 327 327
300 300 300 301 300 301 301 301 302 303 305 304 305 311 318 324 327 329 331 331 332 332 334 336 336 336 336 336 335 335 336 334 333 333 333 331 328 328 328 328 328 328 328 327 326 325 325 325 325
300 301 300 300 300 300 300 299 300 301 302 302 304 308 315 322 326 328 330 330 331 333 335 336 336 336 335 336 336 334 334 336 334 332 332 331 329 327 326 327 326 326 327 326 324 324 324 324 324
299 297 298 299 299 299 300 298 298 301 300 300 302 305 309 317 325 327 329 330 332 334 337 337 336 336 335 335 336 335 334 333 334 333 332 330 329 327 325 325 325 325 325 324 322 320 320 321 321
296 298 294 295 298 298 298 296 296 301 300 301 301 303 304 307 317 325 329 331 333 334 335 337 335 334 335 335 336 335 335 335 334 333 333 330 329 325 321 321 322 323 322 322 320 318 313 314 315
294 292 292 291 296 297 296 296 297 300 301 301 302 303 303 303 305 308 319 328 331 333 334 335 336 335 333 334 335 335 335 335 335 333 332 332 329 327 322 322 322 320 319 317 317 317 316 315 316
291 290 291 292 294 296 295 296 298 300 299 302 303 303 304 303 304 305 306 308 319 329 332 334 336 336 334 334 335 334 334 334 334 333 331 333 331 328 326 326 324 321 320 317 316 314 315 315 316
294 291 291 292 295 294 294 295 298 300 300 301 303 302 302 302 302 302 303 304 306 313 325 330 332 335 334 331 330 330 329 331 331 332 331 332 332 330 327 326 324 321 320 321 319 315 311 308 310
291 292 290 292 294 294 293 295 298 298 297 297 298 299 299 301 302 303 304 304 302 305 311 319 326 331 333 332 331 331 331 331 332 332 330 330 333 331 328 326 325 320 318 318 316 313 312 308 306
291 291 290 291 291 292 291 292 293 294 295 296 296 297 299 300 301 303 304 306 308 305 303 310 318 325 330 333 332 330 327 327 329 330 329 329 329 329 329 327 326 323 318 316 315 312 310 310 307
288 293 292 290 291 288 290 287 292 292 294 295 298 300 301 302 302 303 304 305 306 308 309 303 308 317 323 328 329 326 325 324 327 328 330 330 328 327 326 325 323 322 318 316 317 314 314 313 306
290 293 292 291 291 290 289 288 292 290 292 295 298 299 301 302 303 302 303 304 305 307 310 314 312 309 315 323 326 325 325 326 327 328 329 330 330 328 327 325 323 322 321 318 318 315 313 313 311
292 292 290 290 289 284 288 288 289 290 293 295 297 299 300 300 301 302 303 304 304 307 308 309 310 315 319 319 322 324 324 325 325 326 327 328 329 329 328 326 325 323 322 319 318 317 314 312 312
292 291 284 283 283 282 284 284 291 291 293 298 297 298 299 301 302 302 302 302 303 303 305 305 306 306 310 317 316 317 319 320 320 319 319 319 319 319 321 322 322 323 322 321 319 317 315 313 311
291 291 286 280 279 282 283 283 289 292 294 298 299 299 299 300 301 301 301 302 302 302 303 304 304 303 305 307 307 309 311 315 316 316 316 318 318 319 319 319 320 321 320 321 320 318 316 314 311
289 287 290 282 277 283 286 288 290 292 293 296 296 298 298 300 301 301 301 301 301 301 301 302 302 302 302 304 305 305 306 306 306 307 308 308 309 308 309 311 312 314 315 316 316 315 314 313 312
291 292 286 286 280 280 282 284 289 289 292 295 295 297 297 299 300 300 300 300 300 300 300 300 299 299 300 301 301 301 301 302 303 303 302 303 304 304 305 306 307 308 309 311 312 313 314 314 312
288 287 287 289 286 284 280 284 293 293 295 295 297 298 298 299 299 299 298 298 298 299 299 298 298 298 298 298 299 299 298 299 299 299 299 298 300 299 300 301 301 303 304 305 306 308 309 308 308
290 289 290 286 282 283 283 287 291 295 297 297 296 296 298 299 298 298 298 298 298 297 297 297 296 296 295 296 296 296 296 296 295 295 295 295 295 296 296 296 297 298 299 300 301 302 303 304 303

GFSSGP_sfc_thetae_093.txt.gz
Theta_e
328 322 323 321 308 306 300 302 310 310 310 316 318 315 312 313 310 311 335 337 339 341 343 343 346 346 347 346 348 350 349 347 345 342 340 340 340 339 339 341 342 340 337 339 339 340 341 340 339
321 319 321 316 304 298 299 305 305 309 312 318 316 313 311 312 325 328 331 338 339 342 340 341 343 346 345 347 348 349 348 346 344 341 339 339 340 339 338 341 342 339 338 338 338 336 336 338 338
320 318 314 309 304 299 298 304 308 311 315 315 312 315 314 315 326 330 336 338 339 339 340 343 344 344 344 345 346 348 348 347 343 340 339 338 340 339 338 342 342 340 337 336 336 335 336 337 337
318 318 315 305 300 302 303 306 310 311 311 312 312 310 320 327 328 333 336 337 338 341 340 342 345 344 343 344 344 346 347 347 344 339 338 338 339 338 339 339 341 340 337 335 336 336 336 336 335
318 315 306 303 301 303 305 308 310 309 308 310 311 309 316 327 333 334 335 335 338 341 341 340 344 344 344 344 344 345 346 346 343 339 338 337 338 337 339 338 340 339 337 337 337 338 337 336 336
311 313 302 299 301 303 306 309 310 308 308 310 309 310 317 330 331 333 335 334 339 340 340 341 337 340 342 343 344 345 345 345 342 339 337 336 337 337 337 336 339 339 338 338 336 337 336 336 335
309 308 302 302 301 302 305 310 308 307 307 308 313 308 319 326 332 334 334 335 338 341 339 339 339 337 337 338 339 341 344 343 341 340 339 337 337 338 338 336 337 340 338 336 336 336 336 335 333
310 310 303 303 301 300 307 308 309 307 306 313 316 306 312 326 333 334 334 335 337 340 340 339 338 338 338 338 333 336 338 339 338 335 333 332 332 333 333 331 333 338 337 335 334 335 334 333 331
311 303 301 302 302 302 308 305 307 309 308 311 314 313 321 331 333 331 331 333 335 337 338 339 338 337 337 337 333 332 333 333 331 330 328 328 332 331 330 329 331 334 335 335 334 333 331 330 328
307 303 303 307 306 304 306 306 306 305 306 307 311 317 328 330 330 329 329 330 332 334 337 339 339 338 337 335 336 336 337 337 336 336 334 334 332 331 330 327 327 328 329 333 332 330 325 325 328
307 303 306 305 306 307 306 306 308 305 304 307 307 312 325 328 328 328 329 331 332 335 337 336 339 339 338 336 337 337 336 337 336 337 336 334 331 329 329 331 328 328 324 328 327 327 327 327 326
302 303 305 304 304 305 305 307 305 306 306 309 311 314 323 324 325 326 328 330 332 334 335 337 337 338 339 338 337 337 336 336 335 336 335 333 330 330 329 329 330 330 327 327 327 327 326 326 326
303 302 303 304 303 304 304 304 304 305 308 308 308 313 318 322 324 326 328 330 332 332 335 336 338 335 337 337 338 337 336 335 335 335 335 333 330 330 329 329 329 328 327 326 326 325 325 325 325
304 304 303 303 302 303 302 302 302 305 306 306 306 310 315 319 323 325 326 328 330 332 334 336 336 337 336 335 335 335 337 336 336 335 334 333 331 330 329 328 327 327 327 326 325 324 324 324 325
303 300 301 301 302 301 302 299 300 304 303 303 304 308 311 316 322 324 327 327 330 332 334 335 336 337 335 336 336 335 335 335 335 335 334 333 331 329 328 328 327 327 327 325 324 323 323 322 323
299 301 296 299 301 300 300 297 304 303 302 303 304 306 308 312 318 324 326 329 330 332 333 336 337 337 335 335 336 336 336 334 334 335 335 333 332 330 328 326 326 327 326 324 322 321 319 319 319
297 293 295 294 299 299 299 298 300 302 303 302 303 304 305 307 309 317 325 328 330 331 332 334 337 336 334 335 335 335 335 334 334 334 333 335 332 331 328 325 324 325 323 321 320 317 318 317 317
292 293 294 294 296 297 297 297 300 301 302 303 304 305 306 305 306 309 310 316 326 330 332 333 336 337 336 334 335 335 335 335 336 335 333 333 333 332 330 328 327 326 323 321 320 317 319 316 316
298 295 293 296 297 296 296 297 299 302 302 302 304 305 305 305 307 306 307 308 309 315 326 330 332 335 335 332 331 331 330 333 333 334 334 333 332 334 332 330 329 327 321 321 320 319 318 315 316
296 294 293 294 296 296 296 296 299 301 301 301 302 302 303 303 305 305 306 306 306 308 313 323 329 332 335 332 332 332 331 332 333 333 333 332 331 332 332 330 328 325 320 319 319 317 316 312 312
294 294 293 293 294 295 294 293 297 297 298 299 299 300 301 303 303 305 306 309 309 307 308 311 319 327 332 334 331 331 329 330 330 330 330 330 330 331 330 328 327 325 321 318 319 318 312 311 312
290 295 295 293 292 288 294 288 294 296 296 298 300 302 303 304 305 306 307 308 309 311 310 307 313 319 325 331 331 329 327 324 327 329 331 330 330 330 330 328 326 324 322 319 319 318 316 313 310
292 295 294 294 292 291 291 288 293 294 294 297 300 302 303 305 305 305 305 307 308 312 315 312 308 314 320 324 327 327 325 325 326 327 327 328 329 328 328 327 326 325 323 320 319 317 314 314 312
295 294 293 294 291 284 290 289 291 292 294 297 300 301 302 303 304 304 305 307 308 310 312 315 318 316 315 320 324 324 322 322 322 323 325 327 326 326 326 326 326 325 324 322 320 319 317 314 313
295 291 284 283 283 282 287 287 291 293 296 299 299 300 302 303 304 304 304 305 306 307 308 309 311 314 319 318 319 320 321 322 321 320 321 320 321 322 323 323 322 322 322 321 319 318 316 315 313
292 291 286 281 281 284 284 283 290 295 297 301 301 301 302 303 304 304 304 304 305 305 306 307 307 307 309 310 311 313 317 317 315 313 313 313 313 313 312 313 315 317 318 317 317 318 317 317 315
291 288 293 284 281 285 287 290 293 294 296 298 299 299 301 302 303 303 304 304 303 303 304 304 304 305 305 306 306 306 307 307 307 307 307 307 307 306 307 308 308 310 311 312 312 314 313 313 313
292 294 286 287 281 280 284 287 289 289 292 296 297 298 300 302 302 302 302 302 302 302 302 302 302 302 302 303 303 302 302 303 303 302 301 301 302 302 302 302 303 304 305 307 308 309 310 310 310
289 288 289 290 288 286 283 285 294 294 295 296 298 300 300 301 301 301 301 301 301 302 302 301 301 300 300 300 300 300 299 300 299 299 298 298 299 298 298 298 299 300 300 301 302 303 304 304 305
293 291 290 285 283 285 285 287 294 297 297 299 299 300 301 302 301 300 300 300 301 300 300 299 299 298 298 299 299 298 298 298 297 296 296 296 296 297 297 297 297 297 297 298 298 298 299 299 300

GFSSGP_sfc_thetae_096.txt.gz
Theta_e
327 319 320 317 305 303 297 301 307 307 307 311 313 309 308 315 313 310 331 336 337 339 342 343 347 348 348 349 348 348 348 345 342 341 342 341 341 341 341 340 341 341 339 340 340 339 339 339 339
316 318 316 313 299 294 294 302 304 307 311 313 311 308 308 312 323 326 327 338 341 338 339 341 344 347 347 349 349 348 347 345 341 340 341 340 341 341 343 340 342 340 338 338 336 337 337 338 339
319 317 309 305 300 293 294 301 304 309 311 309 306 310 312 314 324 327 333 337 338 336 338 341 344 346 346 348 347 347 346 345 340 340 341 341 339 340 343 341 342 337 336 337 337 337 336 337 338
314 312 309 299 297 297 299 303 307 306 306 309 307 307 316 324 325 331 335 335 335 336 339 342 344 345 345 346 346 347 347 344 340 339 340 340 338 338 340 342 341 338 337 337 337 336 335 336 336
312 310 301 298 297 298 301 306 307 304 304 306 303 305 314 325 331 332 332 337 337 335 337 341 343 344 345 346 346 347 346 344 340 338 338 339 338 338 339 341 340 337 337 338 338 336 336 336 335
306 308 298 295 296 299 301 304 306 303 304 305 301 309 315 326 328 329 331 336 338 335 336 339 337 340 342 344 345 346 345 343 340 338 337 338 338 338 337 340 340 338 338 337 336 336 336 335 334
306 304 299 297 297 298 301 305 302 302 301 302 306 305 316 322 328 330 329 333 336 336 335 337 337 336 336 338 340 342 343 342 341 339 338 337 338 338 336 337 341 339 337 336 336 337 335 334 332
307 304 300 297 296 297 303 304 304 302 302 308 310 302 309 322 329 329 328 332 335 335 335 332 333 335 335 334 333 336 338 338 336 334 332 331 332 332 331 330 336 338 337 335 336 335 334 333 331
310 300 297 299 298 299 304 301 302 302 303 305 308 313 320 327 329 326 325 328 334 335 335 334 332 332 333 334 330 331 332 332 330 329 327 326 327 328 328 327 330 334 332 334 334 332 331 329 328
302 298 300 302 301 301 303 302 301 299 302 302 307 317 324 326 325 323 324 325 328 331 334 335 334 331 332 333 331 333 333 331 331 330 327 329 326 325 326 323 325 328 329 331 331 328 326 325 323
302 299 303 302 302 305 303 300 303 299 298 302 304 315 321 323 324 323 324 326 327 331 332 334 334 333 331 331 330 331 331 331 331 331 330 328 326 323 325 323 321 321 321 321 323 322 322 322 320
299 302 302 302 301 302 301 302 300 299 298 304 306 316 321 321 322 323 323 326 327 329 332 333 333 334 333 332 331 332 331 331 330 330 330 327 324 322 323 324 323 322 320 320 320 321 321 320 321
300 299 301 301 300 301 303 300 298 299 301 303 306 315 318 319 321 322 324 326 328 328 332 333 333 332 334 333 332 331 331 330 330 330 330 328 325 323 323 322 323 322 321 320 319 319 319 319 320
301 301 299 300 300 300 300 298 297 298 302 302 304 306 313 317 318 319 320 322 326 328 329 333 334 333 334 333 332 331 333 333 330 329 329 329 326 324 323 322 322 321 321 319 319 318 317 318 319
301 296 298 298 299 298 299 295 296 298 300 300 300 302 307 313 317 318 320 321 324 327 329 331 333 333 333 334 333 332 330 330 331 331 330 329 327 324 322 322 321 321 321 320 318 316 316 315 317
296 295 291 295 298 297 296 292 298 299 298 297 298 299 303 307 313 317 321 322 323 325 327 330 332 332 332 333 334 333 333 332 331 332 331 329 328 326 322 321 322 323 322 319 316 315 314 313 313
293 288 291 291 298 296 294 291 295 297 297 296 296 298 301 303 307 312 318 321 323 324 326 329 331 331 331 333 334 334 334 333 332 332 331 331 329 327 323 319 319 319 319 316 316 313 312 311 311
288 287 292 289 293 293 291 291 295 296 297 296 295 296 298 299 302 305 310 314 320 323 325 328 331 331 331 331 333 333 333 332 333 332 331 331 331 329 325 323 320 319 317 316 315 314 312 312 312
294 291 289 291 294 292 291 291 294 296 295 295 296 297 299 300 300 300 301 300 301 305 320 325 328 331 331 330 330 330 329 331 332 332 332 331 331 331 329 324 324 323 320 319 317 316 314 313 313
291 290 289 291 294 291 291 291 294 295 295 296 295 296 298 297 298 301 299 298 300 301 303 314 324 328 331 331 331 330 330 330 332 332 331 331 330 330 330 328 325 324 319 317 316 316 313 312 311
290 290 288 289 291 291 287 287 291 293 294 294 294 294 296 296 299 300 301 302 304 301 301 304 311 322 328 330 331 329 328 328 328 328 328 329 329 329 329 328 326 324 320 317 316 316 314 313 309
288 292 293 291 288 282 288 279 287 289 291 293 295 294 295 297 299 301 302 301 303 306 304 302 304 312 321 329 326 327 325 323 326 328 329 328 328 328 328 327 326 324 321 318 317 317 316 313 311
290 293 292 291 288 284 283 281 284 290 289 291 295 296 298 299 300 300 300 303 304 307 308 300 303 310 315 319 326 326 323 323 323 324 325 326 326 326 326 325 324 323 322 320 318 316 314 315 313
294 291 291 289 286 279 284 282 282 285 289 292 295 297 299 298 298 299 301 303 303 304 307 311 306 308 312 316 319 319 319 320 320 319 320 321 321 322 323 323 322 322 322 320 319 318 316 314 313
290 287 279 277 277 277 282 282 285 288 291 294 295 296 297 298 298 298 299 300 301 301 302 305 311 312 313 313 314 314 317 317 317 316 316 316 315 313 308 310 311 315 317 317 317 316 315 314 314
288 287 281 274 276 278 281 279 285 289 292 296 297 296 297 298 299 298 299 299 300 301 301 301 302 302 303 305 307 309 310 307 305 304 304 303 302 302 303 304 304 305 306 306 308 308 310 311 310
287 284 288 281 274 277 280 284 289 291 291 295 295 296 296 297 298 298 299 299 299 298 299 299 299 299 300 300 300 299 300 300 299 298 299 298 298 299 299 299 300 301 302 302 302 303 303 304 304
289 290 282 283 272 272 279 279 282 286 289 293 294 294 296 297 298 298 298 298 298 297 297 298 298 297 297 297 297 297 296 296 296 296 295 295 295 296 295 295 296 297 297 298 298 298 299 299 299
286 285 286 286 284 277 274 278 286 289 291 293 294 296 297 296 296 296 297 297 297 297 296 296 296 296 295 295 295 295 294 295 294 293 293 293 294 294 294 294 294 294 294 294 294 294 295 295 295
288 288 287 282 279 280 281 280 290 290 293 294 295 297 297 297 297 296 296 296 296 296 295 294 294 294 294 295 294 293 293 292 292 291 292 292 292 292 292 292 292 292 292 292 291 291 291 291 291

GFSSGP_sfc_thetae_099.txt.gz
Theta_e
322 312 314 310 300 296 291 297 304 303 303 305 308 311 313 314 313 306 330 338 340 340 343 343 347 349 349 349 348 347 346 342 342 341 341 342 342 340 339 340 342 340 339 339 338 340 340 340 341
316 314 309 304 294 289 289 298 301 305 307 308 307 308 310 312 322 325 330 338 339 339 341 342 345 348 349 349 347 347 345 342 341 340 340 341 343 341 339 339 340 338 337 338 338 339 340 339 340
315 314 303 300 293 289 291 297 303 306 307 305 303 310 311 316 322 326 336 337 336 337 339 341 344 347 348 347 346 346 344 343 341 341 339 340 343 340 340 338 339 339 337 338 337 337 337 337 337
308 307 303 295 293 293 295 300 304 302 304 305 307 307 314 323 325 330 337 335 336 337 340 342 345 347 347 347 346 346 344 340 340 341 340 339 340 340 341 339 338 338 337 337 336 336 336 336 336
305 303 296 293 292 295 299 304 304 301 302 302 304 306 312 324 330 331 333 335 333 336 338 340 343 345 346 346 346 345 343 340 339 340 339 338 338 339 341 339 338 338 339 337 337 336 335 335 334
300 301 294 292 292 296 298 301 302 300 301 302 308 310 313 325 327 328 335 332 334 335 338 340 336 340 343 345 346 344 343 340 339 339 339 337 337 338 340 340 338 337 337 335 336 336 334 334 333
298 298 293 292 293 295 298 301 299 299 300 298 305 308 314 321 326 327 334 333 333 336 336 336 336 336 335 338 341 342 341 340 339 339 338 337 337 336 337 341 340 337 335 333 336 335 334 332 331
301 299 293 293 293 293 299 300 300 300 301 305 308 307 309 319 326 326 332 332 332 333 333 333 333 334 333 335 334 335 336 337 336 334 332 331 330 330 331 330 336 338 336 335 335 334 333 331 329
304 296 293 296 295 295 299 298 300 301 303 304 308 312 317 326 325 323 329 329 329 330 330 331 331 332 332 332 330 329 330 330 329 329 326 325 326 325 325 327 331 334 334 334 333 331 330 329 327
298 295 297 299 298 297 299 299 299 299 299 301 313 321 324 325 322 320 324 326 327 328 328 329 329 330 331 334 331 330 329 327 327 326 325 326 324 325 324 322 325 328 329 332 330 328 327 324 321
297 295 300 298 300 302 299 297 299 298 295 302 313 318 320 321 320 320 321 327 328 329 330 329 329 330 329 329 329 329 328 327 327 325 325 324 323 322 321 319 319 319 320 320 321 321 320 320 318
295 299 299 300 299 300 299 299 297 297 297 303 317 320 320 319 319 320 321 323 327 330 330 332 331 331 328 328 328 329 328 328 327 327 328 323 320 319 321 320 319 318 318 318 318 319 320 319 319
296 296 299 299 299 299 300 297 297 296 297 304 315 319 319 319 320 321 323 324 326 329 330 331 331 331 330 328 328 329 328 328 328 328 328 324 322 320 321 321 320 320 318 318 317 317 318 318 318
298 298 297 297 297 298 297 294 296 296 298 303 313 315 317 318 319 320 321 322 325 330 330 331 331 330 331 329 328 328 330 329 327 327 327 326 323 322 321 320 320 319 318 317 317 316 316 316 316
297 294 294 295 297 297 297 293 293 297 298 299 301 307 314 315 317 318 319 320 325 328 331 331 331 331 330 330 330 329 329 331 330 329 327 327 325 322 321 320 319 320 319 318 316 315 314 313 314
294 292 288 293 296 295 295 290 296 296 297 296 297 297 303 310 314 316 318 320 322 325 329 331 333 331 329 332 332 330 330 329 328 331 330 328 326 323 320 319 319 319 319 317 315 313 312 311 311
289 285 287 290 295 294 293 289 294 296 295 294 294 296 300 302 307 312 317 319 321 323 326 329 331 330 328 330 333 333 333 331 332 331 331 330 329 325 321 318 318 318 317 315 314 312 311 309 310
284 284 287 287 292 292 289 289 292 295 295 295 294 294 297 299 304 308 315 318 320 322 324 326 329 330 328 330 333 333 332 332 332 331 331 331 330 328 325 320 319 318 316 317 316 315 314 313 312
290 288 287 288 292 291 289 289 292 293 293 294 292 294 294 296 297 298 300 300 302 308 320 324 328 329 329 326 329 329 329 330 330 331 331 330 330 330 329 325 322 320 319 318 317 316 314 313 312
289 287 285 289 292 289 289 290 292 292 293 294 294 294 296 294 296 298 298 298 299 299 301 309 326 329 329 328 328 330 330 330 331 332 331 330 330 330 329 328 324 322 320 318 317 316 314 313 311
289 287 285 287 289 289 286 285 290 293 292 293 293 294 295 294 296 298 299 300 301 299 301 302 307 325 329 328 330 328 328 328 328 329 329 329 329 329 328 328 327 324 321 319 317 316 315 313 311
286 291 290 289 286 281 285 278 284 288 290 291 293 292 293 297 297 299 301 301 301 304 304 301 301 309 325 328 329 327 325 323 326 327 328 328 328 327 327 327 326 324 322 319 318 317 316 314 312
288 292 290 289 286 283 282 279 282 287 287 290 291 293 293 296 298 299 299 302 302 305 304 297 302 310 320 324 328 326 323 323 323 324 324 325 326 326 326 325 324 323 322 320 318 316 315 314 313
293 290 288 286 284 278 281 280 280 284 287 289 291 293 295 296 297 298 300 302 301 303 306 301 306 309 313 317 324 323 321 320 319 319 319 319 319 313 311 314 317 318 318 317 317 316 314 314 313
290 285 278 276 277 276 279 279 283 287 289 291 293 294 295 295 295 297 298 298 299 300 303 308 309 308 311 313 313 314 314 315 314 313 310 307 305 304 304 304 304 304 305 306 306 307 307 307 310
286 285 278 273 274 276 279 278 283 288 292 294 296 295 295 295 295 296 297 297 298 299 299 300 301 301 303 304 304 305 306 305 303 302 300 298 298 298 298 299 299 300 300 300 300 301 301 301 301
285 283 287 280 271 276 278 281 287 289 290 292 293 294 294 295 295 296 297 296 296 296 297 297 298 298 298 298 299 299 298 298 296 296 296 295 295 296 295 295 295 296 296 296 297 296 296 296 296
287 289 282 281 274 272 276 277 280 285 287 291 292 293 294 295 295 295 295 295 295 295 295 296 296 295 295 296 296 296 295 295 294 294 293 293 293 293 293 293 293 293 293 293 293 293 294 292 292
285 284 284 285 281 274 272 277 285 288 289 291 293 294 295 295 295 295 295 295 294 294 294 294 294 294 294 295 294 293 293 292 292 292 291 291 291 291 291 291 291 291 291 291 291 290 290 289 289
287 286 286 281 278 279 279 279 288 289 289 293 293 294 295 296 295 294 294 294 293 293 293 293 293 293 293 293 292 291 291 290 290 289 289 289 289 289 289 289 289 289 289 289 289 287 287 287 287

GFSSGP_sfc_thetae_102.txt.gz
Theta_e
323 312 309 308 299 295 291 296 301 301 301 303 309 312 312 313 310 303 328 335 334 333 342 344 348 349 348 347 347 345 345 344 341 342 342 341 340 340 340 340 341 339 338 339 340 341 342 342 341
319 312 307 301 294 289 289 296 300 303 304 312 310 311 312 310 321 327 329 337 339 340 341 343 345 349 347 347 346 344 344 343 339 340 343 342 340 339 339 338 338 339 338 339 339 341 340 339 338
310 312 301 298 292 288 291 297 302 303 305 303 305 311 315 315 323 325 334 337 338 338 340 342 345 348 347 347 346 344 344 344 343 341 343 342 340 338 338 338 338 339 337 338 338 339 338 337 337
306 304 301 293 290 290 296 301 302 302 301 307 309 308 316 323 325 332 335 336 336 336 339 342 345 347 347 346 344 343 341 342 341 340 341 341 341 338 337 338 338 338 336 335 336 336 336 336 335
304 300 295 292 289 293 298 303 303 301 301 301 307 305 312 323 332 333 333 335 334 334 338 341 344 346 346 346 344 342 341 341 340 339 339 340 340 338 338 338 338 339 337 336 335 335 335 334 333
299 299 292 290 289 294 297 301 301 299 300 307 309 310 311 325 328 330 333 332 334 334 337 338 337 340 343 344 343 342 341 340 340 338 338 338 339 340 339 338 337 337 335 336 335 334 333 333 332
297 296 292 290 290 293 298 301 300 299 299 299 312 307 312 321 328 331 331 331 332 335 334 334 336 336 336 339 340 340 340 339 340 339 338 336 337 339 341 339 338 334 334 335 334 334 333 332 331
300 298 293 292 291 293 299 300 298 300 300 306 315 308 312 321 329 331 329 330 330 331 332 331 332 333 334 336 333 334 336 337 336 335 332 330 330 331 332 331 336 336 335 335 334 333 331 330 329
301 294 292 295 292 294 298 297 297 300 302 306 309 314 319 324 327 328 326 327 328 330 329 329 330 330 331 333 329 329 330 330 330 329 326 324 323 324 324 327 332 336 335 333 332 331 328 327 325
296 293 296 299 296 297 298 298 298 299 299 308 312 317 324 322 327 325 324 323 324 325 326 328 328 328 330 335 330 328 327 325 325 324 324 324 323 323 323 321 326 329 330 331 329 328 326 323 320
297 294 299 299 298 300 299 296 296 298 294 306 312 317 321 320 322 325 324 325 325 326 327 326 327 328 328 330 328 326 325 324 323 323 323 323 322 320 319 318 318 318 319 318 320 319 318 319 317
295 298 298 300 300 299 298 298 295 295 297 306 318 321 320 320 318 322 324 325 325 325 326 326 327 328 326 328 327 327 326 324 324 323 325 320 319 319 318 317 317 317 317 316 316 317 318 317 317
296 296 297 298 299 298 298 295 296 296 296 312 318 320 319 320 318 320 325 327 327 327 328 327 326 326 326 325 326 326 326 326 326 326 325 322 318 317 319 318 318 317 316 317 316 316 316 316 316
299 297 296 297 296 296 296 294 296 296 299 313 317 316 318 319 319 318 321 324 327 329 329 330 329 327 326 325 325 326 326 327 326 326 325 323 321 319 319 318 319 318 317 316 316 315 315 314 314
299 292 293 293 295 295 296 292 292 296 302 311 313 315 317 318 319 320 322 322 327 329 330 330 330 330 328 327 327 326 327 327 326 326 326 324 323 321 320 318 317 318 317 316 315 314 313 312 313
294 291 287 291 295 293 293 288 294 295 299 305 307 308 314 316 319 320 321 322 325 329 329 331 332 329 329 328 328 328 327 327 328 329 329 328 325 322 319 318 317 318 317 315 313 312 311 310 310
288 285 286 288 294 292 291 289 294 294 295 295 296 299 305 311 311 315 317 320 323 328 329 329 329 328 328 328 329 331 331 330 331 330 329 329 328 324 320 318 317 317 316 314 313 312 310 311 309
285 285 285 285 291 290 289 290 291 293 293 293 292 293 296 301 305 310 314 316 321 326 329 330 330 329 327 327 328 331 331 331 331 330 330 330 330 328 324 319 318 319 318 317 316 315 314 313 313
290 288 287 286 290 289 289 289 291 292 292 291 291 292 294 298 300 302 306 313 316 319 324 327 328 328 327 326 325 329 328 329 329 330 330 330 330 329 326 324 321 320 319 318 317 316 314 313 313
289 287 285 287 289 288 287 289 290 291 291 292 293 292 295 295 296 296 297 298 301 304 314 321 327 327 328 328 327 325 329 329 330 331 330 330 329 329 329 328 325 322 319 316 316 314 314 313 312
286 286 285 286 288 287 285 285 288 292 291 291 292 292 293 294 295 296 296 298 298 298 299 304 323 327 328 328 328 328 328 328 328 328 328 329 329 328 328 328 327 325 322 317 316 316 314 313 313
285 290 289 287 284 281 284 279 282 289 290 291 292 292 293 293 295 296 299 300 300 302 303 302 303 324 327 327 328 326 325 323 326 327 328 328 328 327 326 326 325 324 322 320 318 317 316 314 311
288 291 290 288 283 282 281 279 281 285 286 289 291 291 292 294 296 297 299 301 301 305 304 299 299 306 324 327 328 327 324 323 323 325 324 324 317 318 320 322 322 321 320 318 317 316 315 314 312
292 289 287 285 282 278 280 280 279 283 287 290 289 291 292 294 296 297 299 301 302 303 303 298 304 309 320 325 324 326 323 321 320 320 319 315 309 308 308 308 309 309 311 309 309 308 308 309 310
289 286 278 276 276 276 278 277 283 285 288 289 291 291 293 295 296 297 298 299 300 301 303 304 306 307 312 317 318 320 319 319 317 314 310 305 303 302 300 300 300 300 300 300 302 301 301 300 300
285 286 278 272 273 275 279 278 284 287 288 290 291 293 293 294 296 297 297 297 298 300 302 302 303 303 304 307 306 308 308 305 304 303 301 299 297 295 296 296 296 296 296 296 297 296 296 294 294
286 283 286 279 271 276 278 280 286 288 289 290 291 293 293 293 294 296 296 296 296 297 298 298 298 297 299 300 300 299 300 299 297 296 296 294 293 294 293 293 293 293 293 293 293 292 290 290 291
288 289 283 280 272 272 277 277 280 284 287 290 290 292 292 293 294 294 294 295 295 295 295 295 295 295 295 296 297 296 295 295 294 294 292 291 291 291 291 290 290 290 290 291 290 289 289 288 288
285 283 283 284 281 276 272 278 284 287 289 289 291 292 293 293 294 294 293 294 294 293 293 293 293 293 293 294 294 293 292 292 291 291 290 290 289 289 289 289 289 288 288 289 288 287 287 287 287
286 286 285 282 279 279 279 279 287 287 289 290 292 293 293 294 294 293 293 292 292 292 292 292 292 292 292 292 291 291 290 290 289 288 288 288 288 287 287 287 287 287 287 287 286 285 286 285 285

GFSSGP_sfc_thetae_105.txt.gz
Theta_e
319 311 309 307 299 294 291 295 299 300 298 305 310 309 309 312 307 301 326 332 336 336 339 343 346 348 346 345 344 344 344 342 342 341 340 341 341 341 339 339 341 339 341 340 341 342 341 340 341
312 311 306 300 293 289 289 294 299 301 307 313 309 311 311 309 321 326 326 333 335 340 342 343 345 348 346 345 344 344 342 343 343 343 341 339 339 338 338 338 338 338 338 340 339 340 339 339 339
309 309 301 296 290 288 290 297 300 302 309 301 307 312 312 314 322 325 332 336 338 338 340 342 345 347 346 344 343 344 343 343 343 343 341 338 338 338 337 338 336 337 336 337 339 339 337 336 338
305 303 299 294 290 291 294 300 302 300 299 309 310 308 315 322 324 331 336 336 335 336 339 342 346 347 345 344 342 343 343 343 342 342 341 338 337 338 337 337 337 338 336 336 337 337 335 334 337
303 299 294 291 289 291 295 301 300 300 299 302 306 306 311 323 332 333 333 334 333 334 337 340 344 346 345 343 340 342 342 341 340 340 341 338 338 339 338 339 337 336 335 335 335 335 334 333 334
298 298 291 290 289 294 298 300 300 297 302 307 310 310 311 326 328 330 333 331 333 335 336 338 337 341 343 343 342 341 342 340 339 339 339 340 339 339 337 336 336 336 335 334 334 334 333 331 331
297 295 291 290 289 294 298 300 298 300 304 303 313 307 310 320 327 331 330 330 332 333 333 333 336 337 336 338 338 339 340 340 339 338 337 338 340 340 339 337 336 335 335 334 333 332 332 331 330
298 296 292 290 290 292 297 298 299 299 298 309 315 308 314 320 328 329 329 328 329 330 330 330 331 334 335 334 332 334 336 337 337 334 331 330 331 332 333 332 336 335 334 334 332 331 330 330 329
300 293 291 293 291 293 297 296 297 300 302 304 309 314 318 325 327 325 325 326 328 328 328 328 328 331 333 332 328 329 330 331 330 328 324 322 322 323 325 328 333 335 334 332 331 330 328 327 325
295 292 295 298 295 296 297 296 298 301 303 306 309 315 322 326 324 322 321 321 324 325 324 327 326 327 332 334 328 327 326 324 324 323 322 322 321 321 322 321 326 330 329 330 329 328 325 321 317
295 292 297 299 297 298 298 295 296 299 296 307 309 316 319 324 323 322 322 322 322 324 324 324 325 326 327 331 325 324 322 321 321 321 322 322 321 319 318 317 317 317 318 317 318 318 317 317 316
293 297 296 299 298 298 296 297 296 297 298 306 315 320 319 322 323 323 322 322 322 322 323 324 325 326 325 326 325 324 322 321 320 321 322 319 318 317 316 316 316 315 316 315 314 316 316 316 316
296 297 297 298 297 297 297 294 295 296 296 314 317 320 318 321 323 324 325 324 324 323 324 324 324 324 324 324 324 324 323 323 322 322 322 319 318 317 317 316 316 315 315 315 314 314 315 314 315
301 300 296 297 295 295 296 293 295 296 302 313 316 317 318 318 320 322 323 323 324 325 325 325 325 326 325 324 324 324 324 325 324 323 322 321 318 317 317 317 317 316 316 315 315 314 313 313 313
303 298 298 294 294 293 295 291 293 294 307 312 314 315 316 318 318 320 323 324 326 327 327 326 326 326 325 324 325 325 325 326 324 324 324 322 321 319 318 316 316 316 316 315 313 313 312 311 312
297 293 287 293 294 292 293 289 294 295 308 309 310 310 313 315 317 319 322 324 326 328 327 328 329 327 325 325 325 325 325 324 324 325 325 326 323 321 318 316 316 316 316 314 313 312 310 310 309
292 287 285 289 293 291 290 289 293 293 303 307 307 309 311 314 315 317 319 321 325 328 328 328 329 327 326 325 326 326 326 327 329 329 329 328 327 324 319 317 317 316 315 314 314 312 309 309 312
287 285 286 287 290 289 288 290 290 291 295 301 302 303 306 311 316 318 317 318 322 326 328 329 329 329 327 327 326 327 330 330 330 330 329 328 328 326 323 319 318 319 318 317 316 315 315 313 313
290 289 287 289 291 289 288 289 291 290 288 290 292 293 296 303 311 309 312 315 316 321 326 328 327 327 327 324 324 328 327 329 329 329 330 330 330 328 326 324 322 320 316 318 318 316 315 312 313
289 288 287 288 290 288 286 288 288 289 290 291 292 291 291 293 297 300 302 309 313 318 324 326 328 327 327 328 327 324 324 329 330 330 329 329 329 329 328 326 324 322 320 318 317 315 314 313 312
288 288 286 287 288 287 285 286 286 290 289 290 292 291 291 294 295 296 296 298 302 309 317 323 326 327 328 327 325 325 327 327 327 327 327 328 329 328 328 327 326 324 322 319 317 316 315 313 313
287 289 289 287 285 281 285 279 283 287 289 289 291 291 292 292 294 295 296 297 298 298 300 304 319 324 326 326 326 326 325 323 325 327 328 328 327 326 326 325 324 323 322 320 318 317 316 314 311
289 290 289 288 284 281 280 279 281 283 286 289 290 292 292 292 293 295 296 299 300 303 302 301 300 318 325 326 327 327 324 323 325 325 320 315 313 315 317 319 320 319 318 316 315 314 313 313 312
292 289 287 285 283 278 282 281 280 282 286 289 293 292 292 292 293 294 297 300 301 302 303 299 298 300 320 325 326 326 324 321 321 320 315 309 308 307 307 308 307 307 307 306 305 304 302 302 302
290 286 279 278 277 278 277 278 286 284 286 288 289 292 292 291 294 296 297 298 300 302 303 298 300 303 313 324 324 322 321 322 320 318 310 305 303 301 301 300 298 297 298 299 298 297 295 295 294
286 287 279 272 273 276 279 277 282 287 286 288 289 289 290 292 295 296 298 298 298 301 301 302 304 305 312 321 318 316 318 316 313 309 305 301 299 297 295 294 294 294 294 294 293 291 291 290 290
285 282 287 279 271 275 277 280 285 286 287 289 290 289 291 292 295 296 297 297 297 299 301 302 301 300 305 307 307 306 306 305 302 299 298 296 295 293 292 291 291 291 291 291 290 288 288 288 288
288 289 283 281 272 271 276 277 279 282 288 288 289 290 291 292 294 295 295 295 296 297 297 297 297 297 297 300 301 298 298 297 296 296 294 292 291 290 290 289 289 289 289 288 288 287 287 287 287
284 283 283 285 281 275 272 277 284 287 289 289 290 290 291 292 293 293 294 294 294 294 294 294 294 294 293 294 294 294 293 294 293 291 290 290 289 289 288 288 287 287 287 287 286 286 285 285 285
286 286 287 283 279 277 278 278 285 287 287 288 290 292 292 292 293 293 292 292 291 292 292 292 292 292 291 292 292 291 291 291 290 289 288 288 287 287 286 286 286 286 286 285 285 284 284 283 283

GFSSGP_sfc_thetae_108.txt.gz
Theta_e
316 309 307 306 296 294 291 296 299 299 298 305 309 306 307 310 306 301 325 332 337 337 341 343 347 347 344 343 344 344 344 341 341 341 341 340 341 340 339 339 340 341 342 342 339 341 341 340 339
307 310 306 299 293 289 290 293 298 300 309 311 309 309 309 306 319 323 325 334 338 338 341 341 345 347 344 344 343 343 344 344 342 340 340 338 339 339 338 339 337 340 341 341 339 340 340 339 338
309 306 301 296 290 289 290 296 299 304 310 300 307 311 310 312 323 324 329 335 338 338 340 341 345 346 343 343 343 343 343 345 342 339 338 337 337 338 337 337 336 339 338 340 337 338 339 338 337
306 303 299 293 290 291 293 298 300 303 300 308 309 308 313 322 324 329 334 336 336 336 338 342 345 345 343 344 343 343 343 344 343 340 337 338 338 337 337 338 336 336 338 338 337 336 338 337 336
303 299 293 290 289 291 293 301 301 298 298 303 305 306 309 323 331 333 333 334 334 336 337 340 343 344 344 343 343 342 342 342 342 340 337 338 339 337 338 337 336 335 336 336 336 334 335 334 333
300 297 290 288 288 293 297 301 300 297 301 306 309 309 310 326 328 330 332 330 335 336 335 339 337 340 341 341 342 342 341 340 340 340 338 338 338 338 337 335 335 335 334 335 334 333 332 332 332
297 294 290 289 289 294 299 300 298 299 304 303 313 307 312 324 325 330 329 330 333 334 332 334 337 336 335 337 338 340 340 339 339 339 338 339 339 339 338 337 336 335 334 333 333 332 331 331 330
301 297 290 289 290 293 296 298 299 301 297 311 313 306 314 323 327 328 328 330 331 331 330 334 334 335 333 332 331 334 336 337 336 333 331 330 332 333 333 331 335 334 333 332 331 330 330 329 328
302 296 290 292 290 292 295 295 296 299 305 304 310 312 317 324 326 326 325 325 328 330 330 330 334 333 330 329 327 329 331 331 329 326 324 322 322 324 326 329 333 334 333 332 330 329 328 325 324
298 293 294 297 293 293 295 296 297 299 303 305 309 315 323 325 325 322 320 320 322 324 327 328 331 334 330 332 326 326 325 324 323 321 320 321 320 320 321 321 326 328 328 328 329 327 324 320 316
297 295 295 297 295 296 296 294 296 299 299 305 308 315 322 323 322 321 318 318 320 323 325 326 325 332 333 329 323 322 321 320 321 320 320 320 319 317 317 316 316 316 317 315 317 316 316 315 315
295 297 296 297 297 295 295 295 295 298 299 303 312 319 322 321 321 320 318 318 318 320 321 323 324 327 330 329 323 321 320 319 319 320 321 318 317 315 315 315 314 314 315 314 313 314 315 314 314
298 296 299 298 296 296 296 293 293 295 297 309 316 319 320 321 321 322 322 321 319 320 321 321 322 324 325 328 323 322 320 319 319 320 321 319 317 316 315 314 315 314 314 314 313 313 313 313 313
302 302 300 299 296 294 293 291 293 294 305 312 317 316 319 321 321 321 321 322 321 321 322 322 322 324 323 325 323 323 322 322 321 320 321 319 318 316 316 316 315 315 315 314 314 313 312 312 311
303 299 301 299 295 294 293 290 292 292 307 311 313 314 315 319 320 321 323 323 324 323 323 323 324 323 322 322 323 322 322 323 322 322 322 320 319 316 316 315 315 315 315 314 312 312 311 310 311
301 296 293 300 293 294 292 289 293 296 306 308 310 310 312 314 317 321 323 324 325 325 324 324 326 325 323 322 322 323 322 323 323 323 323 322 322 319 316 315 315 315 314 314 312 311 310 309 309
296 292 292 295 293 291 292 289 292 295 304 305 307 308 310 312 313 316 319 324 325 326 326 325 325 324 324 323 323 323 323 323 324 326 327 327 326 323 319 317 316 315 315 316 316 314 311 308 313
290 291 289 293 290 289 288 290 290 290 301 304 305 306 307 310 314 316 317 321 324 326 327 327 327 326 324 323 323 323 323 324 328 327 328 328 327 326 323 318 319 319 318 317 317 315 313 314 311
293 292 291 289 292 288 288 289 293 290 288 294 300 302 304 308 313 315 316 317 318 323 325 326 326 326 324 322 322 322 325 328 328 329 328 328 328 327 325 323 321 320 318 317 318 316 314 312 312
290 287 289 290 290 287 285 288 290 288 289 291 295 295 299 300 299 304 308 310 313 319 323 325 327 326 326 326 325 324 325 328 330 330 329 329 329 329 327 326 324 322 320 318 317 316 314 313 313
290 287 286 288 288 288 285 286 286 289 288 289 290 291 292 296 296 298 300 303 309 313 318 323 326 327 327 328 324 322 325 327 326 327 327 328 328 327 327 326 325 324 322 320 318 317 313 313 313
286 291 289 288 289 284 286 280 284 287 289 288 290 289 291 291 291 294 297 298 300 308 313 320 324 325 326 326 326 325 324 323 324 325 327 325 326 326 324 325 324 323 322 320 318 317 316 315 311
289 291 289 288 285 282 283 279 283 282 285 287 289 291 292 293 291 293 295 297 297 299 301 305 315 320 324 325 326 325 324 325 324 323 318 315 315 317 319 320 320 318 317 315 315 313 312 312 311
292 291 288 285 284 278 284 281 281 282 285 287 292 291 293 292 290 292 293 296 299 301 301 300 299 310 321 324 325 325 325 322 321 319 314 311 309 308 308 309 308 308 308 307 305 302 300 300 299
290 288 280 278 276 277 278 278 285 286 286 289 291 293 293 291 290 291 294 297 298 300 302 301 299 298 309 324 324 325 324 323 321 318 313 307 304 303 302 302 301 300 299 298 296 294 293 293 291
287 288 281 274 274 277 279 278 282 288 288 288 288 289 288 290 292 293 295 297 298 300 302 301 299 299 302 319 323 325 318 322 320 315 311 306 302 299 298 296 295 294 293 291 291 290 289 289 288
283 284 288 280 273 275 279 281 285 287 288 288 288 289 289 290 290 293 294 296 297 298 300 300 300 301 304 309 320 319 319 315 310 306 303 300 297 295 293 292 291 290 290 289 288 287 287 287 286
287 289 282 281 275 272 277 277 281 283 287 290 289 290 292 290 291 293 294 295 295 297 299 299 299 300 302 306 309 309 310 308 304 301 297 296 294 292 290 289 289 288 287 287 287 286 286 285 285
282 283 283 285 281 276 272 279 284 287 289 290 291 289 290 291 292 293 294 294 294 294 295 295 296 295 298 300 299 300 299 299 298 297 295 293 291 289 288 287 287 287 286 286 285 285 285 284 283
284 284 286 282 278 277 278 282 285 287 287 287 288 290 292 292 292 293 293 293 293 294 293 293 292 293 295 296 297 295 295 295 293 292 290 291 288 287 287 286 286 286 285 285 285 284 283 283 283

GFSSGP_sfc_thetae_111.txt.gz
Theta_e
320 310 311 310 300 300 296 300 303 302 303 310 312 311 312 314 311 305 330 335 340 341 344 346 346 346 344 344 344 344 344 342 342 342 344 341 341 340 341 342 343 344 341 341 341 341 340 339 339
310 311 310 304 296 293 294 299 301 303 312 313 312 314 313 313 322 325 328 338 340 342 344 345 344 345 344 344 344 345 345 343 342 340 340 339 339 339 339 341 341 341 340 340 340 341 339 338 337
311 308 305 298 294 293 294 298 303 308 311 307 312 316 316 316 323 326 333 339 341 341 344 344 344 345 344 344 345 345 345 343 341 338 338 338 337 337 338 339 340 340 339 338 339 340 338 337 335
308 307 302 296 295 297 296 301 304 308 306 310 313 312 319 325 326 331 337 339 339 340 343 343 344 344 343 344 344 345 345 343 339 338 338 338 337 336 336 337 338 340 337 336 338 339 337 336 334
306 303 296 294 295 296 296 303 307 303 303 308 311 311 315 327 333 334 336 337 336 339 343 343 343 343 344 344 344 344 345 343 340 339 337 337 336 336 337 336 336 337 336 336 336 336 335 334 333
303 301 293 292 293 296 301 303 303 301 304 310 312 313 316 328 330 332 336 335 337 338 341 343 337 339 341 343 342 343 343 343 341 338 339 338 339 338 336 335 335 335 335 335 334 333 333 332 332
302 298 293 293 293 298 302 302 301 302 306 309 316 311 317 324 330 332 333 333 334 337 339 341 340 337 335 338 338 339 341 341 340 340 339 339 339 338 338 337 335 334 334 334 333 332 332 331 331
302 299 294 293 292 297 300 300 302 305 304 314 317 309 315 323 330 331 331 330 331 335 336 338 339 338 336 337 331 334 336 337 336 335 333 332 332 333 333 332 335 334 333 332 331 331 330 330 329
305 295 293 295 293 297 298 298 300 304 310 309 313 315 320 328 329 328 325 326 329 332 333 338 337 336 334 334 329 330 331 330 329 328 325 325 331 331 332 330 333 333 332 331 331 329 327 324 324
299 296 296 299 295 296 297 298 299 303 306 308 312 319 324 327 326 324 320 320 323 326 328 334 336 335 334 332 332 333 330 329 327 327 327 327 327 327 327 324 325 326 326 329 329 326 323 322 323
298 297 297 297 298 297 297 296 300 302 302 306 309 316 322 323 325 322 320 322 323 326 327 330 333 334 333 331 330 329 328 327 326 325 326 325 324 324 324 324 324 324 318 323 323 323 323 322 322
297 298 298 299 298 297 296 297 297 301 302 304 312 320 321 322 321 321 319 320 321 324 326 328 331 333 333 331 328 327 325 325 325 325 325 325 323 323 322 322 322 322 323 322 322 323 322 321 321
299 298 301 301 297 297 296 295 297 299 299 309 317 321 321 322 322 323 322 321 321 322 325 326 328 330 330 329 328 326 324 324 325 325 326 325 323 322 322 321 322 322 322 323 322 322 321 320 320
302 301 302 301 299 297 295 293 296 297 309 312 316 319 321 322 322 322 321 320 320 322 323 326 326 327 328 327 327 326 325 325 325 326 326 324 324 323 323 322 323 323 323 322 322 321 321 320 319
303 299 301 301 297 296 296 292 294 296 310 311 313 316 320 321 322 322 323 322 322 322 323 324 326 327 327 326 328 327 327 326 325 326 326 324 323 322 323 323 323 324 323 322 321 320 320 319 318
301 299 295 300 296 295 296 291 296 297 308 309 311 312 315 319 321 323 324 325 325 323 323 324 325 325 326 326 326 326 326 326 327 328 328 325 324 323 323 322 322 323 322 322 321 320 319 318 318
298 293 292 297 297 294 293 292 295 297 304 306 308 310 312 315 315 320 323 325 326 325 325 324 325 325 325 325 325 326 326 326 327 328 328 328 326 324 323 323 323 322 321 319 319 317 317 318 320
291 293 292 294 293 290 290 291 294 293 301 302 306 308 310 313 316 318 320 324 326 327 327 326 326 326 326 326 325 326 326 327 327 329 329 328 328 326 324 324 323 321 320 320 319 320 317 318 320
297 295 294 290 298 291 289 290 294 294 293 296 303 307 308 311 316 316 318 320 323 326 326 327 326 326 326 324 324 324 324 326 328 329 329 329 328 327 325 325 324 322 320 320 319 318 317 316 318
293 291 291 294 291 289 288 289 292 291 292 292 297 302 307 308 308 313 316 317 319 323 325 326 327 327 326 327 327 327 328 330 330 330 330 329 328 328 327 326 324 323 321 320 319 318 317 318 318
291 288 287 288 289 289 287 287 289 290 290 291 291 296 300 305 308 306 307 313 317 318 322 325 327 327 328 328 326 325 327 327 328 328 328 329 329 329 328 328 328 325 323 322 320 319 318 316 314
290 292 291 288 288 285 288 281 287 289 290 289 292 290 293 296 299 304 304 304 309 315 319 323 326 327 328 329 327 326 326 325 327 328 328 328 328 328 327 327 328 326 324 322 320 319 318 317 313
289 290 288 288 286 283 283 281 283 286 286 288 291 291 293 295 295 297 299 303 305 308 314 319 323 325 327 328 328 327 327 328 328 327 323 320 321 324 324 325 324 321 319 318 317 316 315 315 314
293 291 290 285 284 279 284 283 281 286 286 290 292 293 294 295 293 294 294 295 298 300 304 310 318 322 325 326 328 327 327 326 324 321 317 317 314 313 313 314 314 313 312 310 308 307 307 307 305
290 288 281 279 279 278 279 281 287 288 288 290 293 294 295 295 294 293 293 294 296 300 301 302 305 314 322 325 326 327 327 326 324 321 318 312 309 309 307 307 306 305 304 302 301 300 299 299 298
289 289 279 273 274 277 279 279 284 289 293 290 290 291 290 291 292 293 294 295 296 300 302 302 301 301 308 323 324 326 326 326 324 322 317 314 309 305 302 300 300 298 297 296 296 295 294 293 293
287 286 287 279 270 275 279 282 286 287 288 289 289 290 291 292 292 292 293 295 297 299 301 302 301 300 300 305 320 323 324 323 320 315 313 307 302 299 297 297 295 294 293 293 292 292 291 291 291
289 291 284 281 271 271 277 278 282 284 287 290 290 290 291 291 292 292 294 295 297 299 301 302 301 301 302 304 308 316 321 318 313 309 304 302 297 295 294 293 292 291 291 291 291 290 289 289 289
283 285 284 285 280 274 272 278 284 288 289 290 289 290 291 292 292 293 294 295 296 297 299 300 300 300 301 304 305 308 310 309 306 305 301 299 295 293 292 291 290 289 289 289 289 288 288 287 287
286 284 286 281 277 277 278 279 286 287 289 289 290 290 290 292 293 293 294 295 295 296 297 298 297 297 298 301 301 301 301 301 301 300 297 295 292 292 290 290 289 288 288 288 288 287 287 286 286

GFSSGP_sfc_thetae_114.txt.gz
Theta_e
323 318 320 320 306 308 303 305 311 308 309 312 318 317 316 319 314 310 335 338 340 341 344 346 346 346 344 344 344 344 345 344 345 344 343 341 342 342 343 343 344 343 342 341 340 340 339 339 338
318 316 320 315 303 299 302 307 307 310 315 318 319 319 317 317 324 327 331 338 341 342 343 344 344 345 343 344 344 344 344 343 341 340 340 340 340 341 343 343 342 341 342 340 339 338 337 336 335
316 314 313 308 305 300 302 307 311 314 316 315 316 321 320 319 325 329 337 340 341 342 343 343 343 344 343 344 345 345 344 342 341 339 338 339 338 338 341 341 341 340 340 340 337 338 336 334 333
316 316 312 305 299 303 303 308 311 313 311 315 318 315 324 329 327 334 338 340 340 340 343 342 344 344 343 344 346 344 343 341 341 339 338 337 338 336 339 341 339 337 338 338 337 337 335 334 332
318 313 305 303 300 303 303 308 314 311 311 315 317 315 319 330 335 337 338 340 338 340 343 343 343 343 344 344 345 345 342 341 341 339 338 338 337 337 335 337 338 336 336 336 336 335 334 333 332
313 312 303 301 300 302 306 310 314 310 312 314 315 318 322 332 332 335 338 338 339 339 342 342 337 339 342 344 344 344 342 341 341 340 340 340 338 337 335 336 337 335 335 334 334 333 333 333 331
309 307 303 302 301 302 306 312 311 310 311 312 320 316 321 326 333 336 337 338 337 340 342 342 339 337 336 338 339 341 341 340 340 340 340 339 338 338 337 336 335 334 334 333 332 332 332 331 330
311 308 301 302 300 301 308 309 309 310 310 320 323 313 318 326 332 335 334 335 335 338 341 341 338 336 338 339 331 334 336 336 337 336 333 331 332 334 334 332 334 333 332 332 331 331 330 330 328
309 304 300 302 300 303 308 306 308 312 315 317 319 319 325 330 331 331 328 330 330 334 337 341 338 335 336 337 333 331 330 330 329 329 327 329 333 333 332 330 333 333 332 331 330 328 326 325 325
306 303 303 304 303 303 307 309 307 310 312 313 316 323 329 329 328 326 324 325 325 329 335 340 339 335 334 334 336 335 334 333 335 336 335 334 333 332 331 325 324 325 328 330 328 326 323 325 327
302 305 305 301 303 303 304 304 309 309 308 312 313 320 323 326 326 324 325 325 327 330 333 336 338 337 335 332 334 334 332 331 333 334 334 333 331 331 330 329 328 327 322 328 327 327 326 326 326
300 299 300 303 301 302 302 305 305 309 309 312 317 324 324 323 324 326 324 326 326 328 330 334 337 336 336 334 332 331 330 330 329 330 332 331 330 329 328 327 327 328 328 327 328 328 327 326 326
303 302 302 303 302 302 301 302 305 306 307 311 318 324 323 323 325 328 328 326 326 326 328 331 335 334 335 335 333 330 329 329 329 329 331 331 329 328 327 328 328 329 330 329 329 328 328 328 326
305 302 303 303 303 300 300 300 302 307 311 314 319 322 324 325 326 326 328 325 324 325 326 328 331 333 332 330 334 330 329 329 330 331 332 331 331 330 329 329 329 330 330 330 330 329 328 328 327
306 301 302 301 298 298 300 298 299 304 311 313 317 321 323 326 327 325 328 325 323 324 328 330 332 331 330 330 331 331 330 328 330 331 332 331 330 329 329 330 330 330 330 329 329 328 328 328 326
304 304 297 299 298 297 300 299 302 304 309 310 315 319 321 323 326 327 330 327 326 324 325 328 330 331 331 331 333 332 332 331 330 331 333 331 330 329 329 329 329 330 329 329 329 329 327 327 327
301 296 299 302 300 297 298 297 299 302 307 308 313 316 320 322 324 327 329 329 328 326 325 326 328 329 330 331 331 333 332 332 331 333 334 333 330 327 329 330 330 330 328 324 324 326 323 324 327
293 297 298 300 300 297 299 298 302 300 304 306 310 315 317 320 322 327 329 331 332 331 327 325 327 328 329 329 330 330 331 331 332 332 334 334 331 327 327 330 331 328 325 323 324 322 326 324 324
300 300 299 298 303 298 298 301 304 307 300 303 306 311 314 317 322 326 329 331 331 332 331 329 326 327 328 327 326 328 327 329 330 332 332 331 330 329 327 327 327 328 327 326 326 323 322 321 324
301 299 300 301 296 296 298 298 302 303 301 302 304 307 312 315 319 322 325 328 330 331 332 332 331 329 329 329 330 330 330 331 332 333 331 330 330 330 328 328 326 328 326 324 323 321 320 320 322
296 298 296 295 293 294 294 297 298 300 301 301 301 304 308 313 315 318 322 324 327 329 331 332 333 333 332 332 331 331 333 332 331 331 331 331 331 330 330 329 330 327 327 327 323 322 321 320 318
289 294 293 292 291 291 297 292 299 300 301 297 300 301 302 307 314 317 318 321 324 326 329 332 333 333 333 333 331 329 328 327 330 331 331 332 333 331 332 330 330 330 331 327 324 322 322 321 317
292 297 294 292 290 289 290 288 296 296 296 300 298 301 302 303 307 311 316 319 321 325 327 328 330 332 334 333 332 331 329 332 333 332 332 331 330 331 331 330 330 329 328 325 321 320 320 320 319
295 293 292 290 289 285 291 289 293 295 295 298 301 301 301 302 303 305 310 314 316 320 323 326 326 329 332 333 332 332 331 331 331 331 330 325 324 326 329 328 326 322 319 318 317 316 316 316 316
294 291 283 282 282 284 285 287 293 297 298 300 301 303 303 303 303 302 302 301 307 312 314 319 323 324 328 331 331 332 332 332 331 331 329 324 318 316 317 318 317 314 312 310 309 309 311 312 309
292 293 284 279 280 285 282 283 291 296 301 299 299 301 301 301 301 301 302 303 304 305 307 311 314 320 324 328 329 331 330 330 332 332 330 326 323 322 314 314 313 307 305 303 304 304 304 304 301
290 288 290 284 279 281 286 289 293 296 294 295 296 295 298 300 299 299 300 301 302 303 305 307 309 312 318 323 326 326 327 326 327 329 330 326 322 313 307 306 303 300 299 300 302 300 297 298 298
294 296 286 287 280 278 284 284 288 292 294 295 295 296 298 298 298 299 298 300 301 303 305 308 309 310 311 314 323 323 325 326 326 325 322 318 312 307 305 300 300 296 296 298 298 296 296 295 295
290 289 290 291 287 282 281 287 293 293 295 296 297 296 298 298 299 299 300 300 302 303 304 307 308 309 308 308 309 318 324 324 320 316 311 308 304 303 303 302 296 295 294 295 295 295 294 293 292
293 291 291 286 283 285 283 286 293 294 294 294 296 296 297 297 298 299 300 300 300 301 303 305 307 308 309 309 310 310 313 317 314 316 310 305 300 302 296 298 294 294 294 294 293 292 292 291 290

GFSSGP_sfc_thetae_117.txt.gz
Theta_e
328 322 322 320 308 307 305 306 312 310 311 316 320 317 317 321 316 313 336 339 340 341 343 344 347 345 343 343 342 344 346 346 345 344 342 343 343 344 342 343 344 343 340 338 339 339 338 338 338
321 319 321 315 305 300 303 310 308 311 316 319 320 319 317 319 326 328 332 339 340 341 341 341 343 345 344 343 344 344 344 343 342 341 341 340 343 343 342 341 342 343 339 338 338 337 335 334 333
322 318 314 309 306 302 303 308 312 315 318 318 318 323 320 321 328 330 336 338 339 339 341 342 343 344 343 343 345 344 343 342 342 340 338 339 342 343 341 340 340 341 338 336 337 336 334 333 332
320 318 314 305 303 305 305 310 314 315 314 318 318 316 325 331 330 334 338 338 338 339 341 341 344 344 343 344 344 343 342 342 340 338 337 336 338 340 340 339 339 339 337 335 336 335 334 332 331
321 315 306 305 305 306 306 310 315 313 313 315 317 315 320 329 334 335 337 337 335 337 341 340 342 344 344 346 343 342 342 340 341 337 337 337 337 338 338 339 336 336 335 336 335 335 333 332 331
313 313 304 302 306 306 308 311 314 314 315 316 314 316 322 332 332 334 336 335 338 338 341 339 336 339 342 343 343 342 341 339 337 337 339 336 335 336 337 337 335 335 335 334 334 334 332 331 330
311 309 305 306 307 304 307 313 313 312 313 313 318 313 323 328 333 334 335 336 336 338 340 338 336 336 336 338 339 340 340 339 340 340 339 338 337 337 336 337 335 333 333 333 333 332 331 330 329
316 311 306 307 305 304 310 313 316 313 311 320 321 313 318 328 333 336 335 335 335 336 338 336 335 336 337 338 332 334 335 336 337 334 333 332 332 333 333 332 334 332 332 331 331 331 330 329 328
313 306 303 305 306 307 311 310 313 315 315 317 321 319 327 331 334 331 330 331 331 335 338 337 334 334 335 335 333 330 330 331 330 329 327 328 332 332 332 329 332 332 332 331 329 328 326 326 326
312 306 306 310 309 307 310 310 310 311 313 314 318 325 330 329 329 327 327 327 327 330 335 337 334 332 333 332 334 334 333 335 335 334 334 332 332 331 330 325 325 327 330 329 327 325 325 324 327
307 307 310 305 306 306 308 310 312 310 310 312 314 322 325 327 328 327 326 327 327 330 335 337 335 332 332 331 333 332 331 332 334 335 334 333 330 329 329 328 326 326 323 327 327 327 327 327 327
302 304 305 304 303 304 304 310 308 310 310 314 316 325 325 324 327 326 325 326 326 328 332 336 337 333 331 332 332 331 329 330 331 333 334 332 330 330 328 327 328 328 327 327 328 327 327 327 327
306 304 301 305 305 304 304 304 308 309 313 312 318 324 325 325 327 329 328 328 327 325 329 333 335 335 334 331 330 330 329 329 329 330 331 330 329 329 328 328 328 328 329 328 328 328 327 328 327
308 306 306 304 303 302 302 304 304 308 313 312 318 322 325 326 327 329 328 327 325 325 328 330 334 333 333 333 332 329 329 329 329 330 331 331 331 330 329 329 330 329 330 329 329 328 328 328 327
307 301 304 304 300 299 302 300 300 308 311 311 316 320 323 326 328 329 329 328 326 325 328 330 331 333 331 331 333 331 329 328 330 331 333 331 331 330 330 330 330 330 330 329 328 328 328 327 326
304 302 296 303 303 300 300 299 306 308 309 310 313 317 321 324 327 330 331 331 327 324 325 328 331 332 330 329 330 331 330 328 330 332 333 331 331 330 329 330 329 330 330 329 329 327 326 326 326
303 296 298 301 302 299 300 300 305 304 307 308 311 314 319 321 325 328 330 331 327 323 323 327 330 330 331 332 331 332 331 330 330 330 332 333 331 331 330 330 330 330 329 328 327 326 326 325 327
296 299 303 302 303 302 301 302 306 305 303 306 309 313 315 319 321 326 330 332 328 326 322 325 328 328 329 330 330 331 331 331 331 331 333 333 333 331 330 330 331 331 329 326 326 325 326 326 324
305 303 302 305 303 302 302 303 306 309 305 305 306 308 313 315 321 325 328 331 331 329 325 323 325 326 327 328 328 328 327 330 330 331 333 335 334 331 328 329 330 330 327 327 328 326 324 323 325
305 302 302 305 300 301 304 304 307 309 309 308 307 306 308 313 316 321 325 329 330 331 330 327 324 326 326 328 328 328 328 330 330 332 333 334 333 330 328 328 327 328 329 328 327 324 321 322 324
303 302 302 300 301 299 299 299 302 307 309 310 309 308 307 309 313 317 322 326 330 331 332 332 330 327 327 328 329 329 331 331 330 331 333 333 332 332 330 328 329 327 327 326 326 324 321 320 320
295 298 300 294 294 294 299 293 303 307 307 307 309 309 308 307 311 316 319 323 327 330 334 334 334 333 331 331 331 329 329 327 330 332 333 332 333 333 332 330 329 328 327 328 330 326 323 321 318
295 297 295 293 291 290 293 291 298 303 302 305 309 308 310 307 308 312 317 321 324 329 331 334 334 334 335 334 333 332 331 332 332 333 334 333 334 333 332 331 331 330 331 331 329 324 321 321 319
298 295 293 291 289 284 292 291 295 299 300 303 306 309 309 308 308 309 314 320 322 327 329 330 331 332 334 335 334 333 332 332 332 332 332 333 333 332 332 330 330 331 329 325 322 320 320 318 318
294 293 285 283 283 285 289 293 295 302 304 303 304 307 309 310 307 308 308 313 318 321 325 328 328 328 331 334 334 333 333 333 332 332 332 331 330 328 328 328 326 324 322 317 315 314 314 314 314
292 295 289 282 284 288 286 286 293 299 299 302 304 303 306 308 308 308 308 308 311 316 320 322 324 325 327 331 332 333 333 333 333 333 332 331 329 326 326 325 323 318 316 312 309 309 309 311 309
291 289 296 286 282 283 289 292 297 299 298 298 300 301 301 302 304 305 306 307 307 308 310 315 318 321 324 327 329 331 332 332 331 332 333 331 331 326 324 321 315 311 308 307 305 303 301 303 302
296 297 287 290 282 281 288 288 289 295 297 299 298 300 302 303 304 303 303 304 305 307 308 308 310 312 316 323 326 328 330 330 329 329 329 328 328 319 317 312 309 306 305 303 303 300 300 299 298
290 291 292 293 290 285 284 289 296 294 295 297 299 299 300 301 301 302 303 304 304 305 305 307 308 309 310 314 320 324 326 327 326 325 326 322 318 313 312 309 305 304 301 301 299 298 297 296 294
296 293 293 288 285 289 287 288 296 296 297 297 297 299 300 300 301 302 303 303 303 304 304 305 307 309 310 311 311 316 323 322 322 322 318 312 310 308 308 304 301 300 298 298 297 294 294 293 292

GFSSGP_sfc_thetae_120.txt.gz
Theta_e
325 321 318 317 305 303 301 304 309 308 308 313 317 315 315 318 316 311 331 337 340 339 340 344 346 345 344 345 347 347 346 346 345 344 344 345 344 344 343 344 341 338 338 338 338 338 338 336 336
324 320 316 312 301 298 300 306 306 310 313 316 315 314 315 315 324 326 328 337 339 339 341 342 343 345 344 345 346 346 346 345 344 341 341 344 344 343 343 343 341 339 337 337 337 336 335 334 334
327 321 310 307 302 299 299 305 309 313 315 315 314 319 319 319 325 327 333 337 338 338 339 341 343 345 345 345 345 345 344 339 340 340 341 343 343 340 340 342 342 339 337 337 336 335 333 332 333
321 315 310 301 300 302 302 306 313 311 310 314 313 314 322 328 326 332 335 336 337 338 338 341 343 345 345 345 344 342 342 340 341 337 339 341 341 341 339 340 340 338 335 336 336 334 333 332 331
321 312 302 300 302 302 303 308 314 310 310 312 311 312 317 329 331 334 333 335 336 336 336 339 343 344 345 344 343 342 341 341 339 338 336 337 339 340 339 337 337 334 334 335 335 334 332 331 330
313 310 300 298 302 304 304 306 310 310 311 312 308 315 318 329 330 331 334 333 338 336 336 337 335 339 342 342 342 341 340 338 337 337 336 335 337 340 338 336 335 335 335 334 334 333 332 331 330
311 307 301 302 304 302 304 308 307 309 309 310 311 312 320 325 330 332 333 335 338 338 335 334 335 335 335 337 338 338 338 339 339 339 338 336 334 334 337 336 334 334 334 333 333 332 331 330 329
312 310 303 304 303 303 307 309 311 309 309 315 315 312 313 326 331 332 332 333 336 337 334 332 332 334 335 334 331 333 335 335 335 334 332 331 331 332 332 331 333 332 332 331 331 330 330 329 328
313 303 300 303 304 305 308 306 308 310 311 311 315 318 324 330 332 330 328 329 332 335 335 331 330 331 334 334 327 328 330 330 329 329 327 326 328 328 329 328 332 332 331 330 329 328 327 328 326
304 303 304 309 307 303 307 307 307 305 309 311 315 325 328 330 329 326 325 324 325 330 333 331 328 328 330 334 331 329 330 329 329 327 326 327 326 327 327 323 326 329 329 329 327 326 327 323 321
306 305 310 305 304 303 306 305 309 305 305 310 312 322 324 326 327 325 325 325 324 328 333 332 327 327 327 327 328 328 327 329 330 329 328 326 325 323 323 319 318 318 321 322 323 322 322 321 321
305 307 303 306 304 303 302 307 304 306 302 308 317 324 323 323 324 324 323 324 324 325 331 334 328 326 326 327 327 326 325 326 327 328 328 325 324 323 322 321 321 320 320 319 320 321 321 321 322
306 304 301 304 305 302 304 301 304 304 307 309 322 322 322 322 324 326 325 324 324 324 327 333 331 326 326 326 326 325 323 324 326 327 328 327 324 322 322 321 322 322 322 321 321 321 322 322 323
310 307 301 303 301 301 301 301 301 303 306 308 320 320 322 323 324 324 323 322 322 324 324 331 332 331 328 325 324 324 324 324 323 324 325 326 325 323 322 322 323 323 323 322 322 321 321 321 321
310 302 304 303 302 299 300 298 297 303 306 307 316 318 322 323 324 324 325 323 323 323 325 327 332 332 329 327 327 323 323 324 324 325 327 326 326 325 323 324 323 323 323 323 322 321 321 320 320
302 301 295 302 299 298 298 298 304 305 304 305 309 313 319 322 324 325 327 325 324 321 324 327 331 332 330 327 326 326 324 322 324 326 327 327 327 325 323 324 324 324 323 322 321 321 319 318 318
299 293 294 298 302 297 295 297 304 301 302 303 305 309 315 318 322 325 327 326 325 321 322 325 328 329 329 328 326 327 325 323 324 325 327 327 327 326 324 324 324 324 323 321 321 319 318 317 319
294 297 296 297 298 298 295 297 298 299 300 301 302 306 311 314 319 323 325 327 327 322 321 324 326 328 328 328 327 327 325 324 324 324 326 328 327 327 325 325 326 325 323 321 320 318 319 319 320
302 301 299 302 302 298 296 298 301 304 300 299 300 301 307 313 317 320 324 326 327 320 317 321 324 326 328 326 324 323 324 324 324 324 326 328 328 327 325 324 325 326 322 321 320 320 318 320 321
303 300 301 301 301 300 300 299 303 305 305 303 301 301 302 307 312 317 320 324 326 322 319 319 323 324 325 325 325 323 323 324 324 325 326 328 328 327 324 325 324 325 322 322 321 318 318 320 320
302 300 301 299 296 296 294 295 298 303 306 307 308 305 303 303 308 312 318 321 325 325 323 319 320 322 323 324 325 323 323 323 323 323 325 328 328 327 325 324 323 323 323 323 323 319 319 317 317
297 300 300 295 294 291 296 288 297 302 302 305 307 306 304 302 304 310 317 319 324 326 327 326 322 321 322 323 322 321 321 321 324 325 326 328 329 328 327 325 324 323 322 322 323 321 320 320 315
297 298 293 292 290 290 288 286 292 296 300 302 305 306 306 304 302 305 313 319 323 326 327 328 328 325 323 323 323 322 322 325 326 327 326 328 328 328 328 327 325 324 325 324 321 320 319 319 316
296 293 292 290 290 284 290 288 289 294 297 299 303 306 307 306 304 303 309 316 319 323 326 328 328 328 328 325 323 325 324 326 325 326 326 328 328 328 328 327 326 326 326 323 322 319 319 319 317
295 293 284 283 282 283 287 287 292 298 300 297 299 300 303 306 304 302 303 309 314 318 322 325 327 327 329 329 328 327 328 328 327 327 327 327 327 327 327 326 325 325 325 323 319 318 317 317 316
292 293 284 279 279 281 282 283 289 297 297 295 296 299 296 297 303 301 302 304 311 315 319 322 322 325 327 328 329 330 329 329 329 328 329 328 328 327 327 326 325 321 315 314 315 314 313 312 311
291 290 291 282 276 279 283 287 293 296 295 295 294 294 293 294 297 298 300 301 303 308 313 318 320 321 322 325 328 329 329 329 329 329 329 329 329 327 321 322 320 314 312 310 310 309 307 306 301
295 296 287 286 276 275 282 282 285 289 291 294 293 295 296 296 297 297 297 299 300 301 303 306 312 315 319 319 323 326 328 329 329 329 327 328 328 325 321 318 317 311 309 309 308 303 301 299 297
289 289 290 291 287 279 278 283 289 292 291 291 293 294 294 294 294 296 296 297 298 298 298 300 301 303 306 312 315 319 323 325 326 327 325 322 320 318 317 314 310 308 307 306 303 300 297 295 293
293 292 292 286 283 285 283 283 291 292 292 292 292 293 293 295 295 295 296 297 297 297 298 298 299 301 302 304 306 310 315 317 318 318 318 318 314 311 312 309 308 305 304 302 300 297 295 294 292

GFSSGP_sfc_thetae_123.txt.gz
Theta_e
332 327 313 310 299 297 294 300 305 305 305 310 314 314 315 316 314 310 332 337 339 338 343 343 345 346 346 348 347 346 347 347 345 346 345 346 345 344 340 340 340 337 338 338 338 337 337 336 336
328 324 310 304 295 292 295 301 303 307 310 313 314 315 316 313 322 324 331 338 338 340 341 341 343 345 345 347 347 347 346 346 344 345 343 345 343 342 342 339 339 337 337 337 336 335 335 335 336
326 323 304 301 296 292 295 302 306 309 312 311 311 318 317 317 323 325 336 337 338 338 339 340 343 345 345 345 345 344 343 344 342 343 345 343 341 342 342 340 339 336 337 336 335 334 334 334 334
321 311 305 297 295 299 300 305 308 307 309 312 315 312 320 326 325 331 337 337 335 336 338 340 344 345 345 344 343 342 342 342 341 342 344 342 339 340 341 340 336 337 336 336 335 333 332 332 333
316 307 298 296 298 298 301 310 309 306 307 310 312 311 315 325 329 331 336 336 332 333 337 340 343 344 344 343 343 342 342 341 339 339 340 340 339 339 338 336 335 335 335 335 334 332 331 331 332
309 305 295 294 298 299 299 305 310 307 307 309 314 313 314 325 329 331 336 334 333 333 336 338 335 339 341 341 341 340 340 339 339 337 336 339 339 338 336 335 335 335 335 334 333 332 331 330 331
306 305 297 298 299 298 302 305 304 306 308 307 313 312 317 325 330 331 335 335 333 333 333 334 336 335 334 337 336 337 336 338 338 338 336 336 335 337 336 335 334 334 334 333 332 331 331 330 330
307 305 299 297 299 302 304 306 307 307 307 312 316 311 313 322 330 332 335 335 333 332 330 330 333 334 333 332 330 333 335 336 335 334 331 330 330 331 332 331 333 333 333 332 331 331 330 329 328
310 300 297 300 301 302 305 303 306 309 310 312 317 316 320 327 330 329 330 331 333 331 328 330 331 332 331 329 326 328 329 330 330 328 326 325 326 327 327 328 331 331 331 330 329 329 328 327 325
306 300 301 304 299 298 304 303 305 305 308 310 317 323 325 326 327 326 325 326 330 330 327 329 327 331 331 331 327 327 327 325 325 325 325 326 326 326 326 324 327 329 328 329 328 327 326 323 320
307 303 305 302 302 301 304 303 305 304 303 310 314 320 322 324 325 325 325 323 325 329 331 326 325 330 328 329 327 326 325 325 323 324 325 324 323 322 320 318 320 319 320 319 321 321 320 320 320
302 308 306 304 303 301 300 303 303 303 303 309 322 323 323 324 324 325 324 323 323 328 330 327 324 325 324 328 326 325 325 325 324 325 325 321 319 319 318 316 316 317 318 318 318 318 319 319 321
306 308 303 304 304 301 302 300 301 302 303 314 323 321 321 324 325 326 323 324 323 323 327 331 323 323 324 324 325 324 322 324 325 325 325 324 321 319 319 319 318 318 318 318 318 318 319 320 320
308 309 303 304 303 300 300 300 300 302 309 319 320 318 320 322 324 323 323 322 323 325 325 331 325 323 324 323 322 322 321 323 324 325 325 324 322 321 320 319 320 319 320 320 319 319 319 319 319
309 303 302 302 302 298 300 298 297 303 307 316 316 317 319 321 323 323 324 321 323 325 325 330 330 326 323 323 322 321 321 322 321 323 324 323 323 321 320 320 320 321 321 321 320 319 320 318 319
303 302 297 302 301 299 298 297 304 304 302 309 313 314 318 320 322 322 324 321 322 323 322 330 331 330 326 324 325 321 322 321 321 323 323 324 324 323 321 321 321 322 321 320 319 319 318 317 316
298 293 296 298 300 295 297 297 303 303 302 301 307 312 317 319 321 321 323 323 321 321 323 326 328 330 329 325 325 324 321 322 323 324 325 324 325 323 321 322 322 322 321 319 319 318 317 316 317
292 296 296 296 298 295 293 293 298 299 299 300 300 305 314 317 320 323 324 324 322 319 323 324 326 328 330 327 324 324 323 321 321 324 326 325 325 324 321 322 323 322 320 319 319 317 317 318 318
299 297 297 298 300 294 294 293 296 299 296 296 298 298 306 314 321 323 325 323 323 319 321 323 324 326 328 327 323 323 323 322 320 321 324 326 324 324 322 322 322 322 320 320 319 317 316 316 320
299 299 296 298 298 296 294 294 297 299 298 297 297 298 299 309 312 319 322 323 324 321 318 322 324 325 327 327 326 325 324 323 324 324 324 326 325 325 324 322 322 323 321 319 318 316 314 315 320
302 299 298 295 296 296 293 293 296 300 303 304 301 300 301 301 311 314 319 322 324 320 316 319 322 324 327 327 326 321 320 321 321 322 323 325 327 326 325 323 323 321 322 320 319 319 316 314 317
297 304 303 295 295 290 296 287 293 299 301 303 306 303 302 300 305 314 318 320 323 324 320 317 322 323 325 325 323 322 321 320 323 324 324 324 326 327 326 324 323 322 322 319 320 321 319 318 315
300 300 296 296 289 289 287 286 289 294 297 301 304 305 303 300 300 306 316 319 322 325 322 319 318 321 323 323 324 322 321 322 323 324 322 323 326 327 326 325 323 322 321 321 320 320 319 320 317
296 295 295 292 291 286 288 288 287 292 295 298 301 304 305 302 301 300 310 318 320 323 324 323 320 318 320 321 322 322 321 320 321 322 322 323 325 327 327 326 325 323 322 321 320 320 319 319 320
296 295 285 284 284 284 287 286 292 295 297 298 298 299 302 304 302 302 300 310 315 319 323 324 324 322 319 319 320 321 320 321 322 323 324 324 325 326 326 325 324 324 323 322 321 319 319 318 318
294 296 287 280 280 281 282 283 289 297 300 298 297 296 297 296 300 301 302 304 313 316 322 323 324 325 326 323 320 321 321 323 324 325 325 325 326 327 328 327 326 325 323 323 321 320 319 318 318
292 290 293 282 274 278 282 286 292 295 295 293 292 293 294 294 295 300 298 299 306 310 314 320 322 324 324 326 326 324 322 323 325 326 326 327 327 327 326 326 324 323 322 319 318 318 315 313 312
296 296 288 286 275 274 280 281 285 288 292 294 293 293 294 294 294 295 297 298 298 305 311 313 316 318 320 319 323 326 326 326 326 326 325 326 326 325 323 322 322 317 317 315 315 314 309 310 302
291 291 290 289 284 278 277 281 289 292 292 292 293 293 294 293 293 294 295 295 296 296 298 301 305 310 312 315 315 317 320 322 323 326 325 324 322 322 323 322 320 317 314 312 312 309 306 306 300
294 294 292 288 282 283 282 282 291 291 291 292 292 292 292 292 293 293 294 294 295 295 295 296 297 299 301 304 309 311 313 315 317 321 322 319 321 316 318 316 314 312 311 309 309 306 304 304 300

GFSSGP_sfc_thetae_126.txt.gz
Theta_e
329 326 312 309 299 296 293 298 302 303 305 310 313 315 314 315 312 306 330 334 338 340 343 344 347 348 347 347 347 346 347 347 345 344 343 342 340 338 339 338 339 337 338 338 338 338 337 337 337
323 325 310 302 295 291 294 299 302 305 310 315 316 315 315 312 321 327 329 337 339 340 340 340 344 347 347 346 346 346 346 347 346 344 343 342 343 339 338 336 336 336 336 336 336 336 337 336 338
323 321 304 299 293 292 295 301 304 308 310 311 313 318 316 316 323 327 335 336 339 338 338 339 343 346 346 346 345 345 344 345 345 345 342 343 340 338 337 336 336 336 335 334 335 336 335 336 338
318 311 305 297 293 297 299 304 307 307 307 313 314 312 319 325 324 332 336 338 336 336 337 340 343 345 344 344 343 343 343 345 345 344 342 341 340 338 337 336 336 336 335 334 334 334 335 335 337
316 306 297 297 296 298 303 307 308 306 307 308 313 310 313 325 332 334 335 335 333 333 336 340 342 343 343 342 343 342 342 342 342 342 342 339 341 337 336 335 335 335 334 333 333 333 333 333 334
309 304 294 294 298 299 302 308 307 304 306 312 313 313 314 326 332 334 334 332 334 334 336 338 336 339 340 341 341 341 340 340 340 340 340 339 339 337 335 334 335 335 334 333 332 331 331 332 332
307 303 296 297 297 297 299 306 305 306 307 306 317 312 313 318 331 334 332 331 332 334 333 334 336 335 334 336 337 338 338 338 337 337 339 338 337 337 335 335 334 334 333 332 331 330 331 331 331
306 304 300 296 298 299 301 304 305 307 306 312 319 309 311 320 331 333 332 331 330 330 331 332 332 332 331 330 329 331 334 336 335 334 331 330 332 333 332 331 334 333 332 331 331 330 330 330 329
312 300 297 299 300 300 302 302 305 308 309 314 318 316 318 324 332 331 330 329 327 327 329 331 330 329 329 328 325 328 330 330 330 328 325 324 325 326 326 327 331 332 332 330 329 328 327 326 324
309 300 300 304 298 296 302 302 305 306 307 310 315 320 323 325 327 327 328 326 325 323 326 330 329 328 327 330 327 325 326 325 324 323 323 324 324 324 325 323 327 329 328 330 329 327 326 322 319
306 304 306 306 302 300 299 301 303 305 302 309 312 317 321 321 322 326 327 328 326 325 326 328 328 328 326 326 325 324 322 321 322 322 323 323 323 321 319 318 320 318 319 318 320 319 318 318 318
304 310 310 308 304 299 298 300 301 303 304 308 317 321 322 322 322 323 326 325 325 325 325 326 327 328 326 325 324 323 323 321 321 322 323 320 319 317 316 315 315 315 317 317 317 317 318 318 319
303 309 306 310 305 300 300 298 300 301 302 315 321 321 321 322 322 322 324 325 325 326 326 324 326 326 326 325 323 322 322 323 322 323 323 321 318 317 316 316 316 316 316 316 317 317 318 318 319
309 309 308 306 304 303 297 297 297 300 315 317 319 319 321 321 323 323 322 323 323 326 326 325 324 324 323 324 322 321 321 323 323 323 323 321 320 318 317 317 317 317 317 318 317 318 318 318 318
308 305 302 305 306 304 300 302 295 300 315 315 315 316 319 320 321 323 323 323 324 325 327 327 322 323 322 323 323 322 321 322 322 323 323 323 322 319 318 317 317 318 319 319 318 318 317 317 317
303 301 296 302 302 303 305 299 304 301 313 312 312 312 316 317 321 323 324 323 324 324 325 328 326 323 322 321 321 322 321 321 322 324 324 323 322 320 318 318 319 320 319 319 317 316 316 315 315
298 291 295 298 301 297 299 301 307 305 304 310 311 312 315 316 318 322 323 324 323 324 323 326 327 324 323 322 323 320 321 321 320 322 323 323 323 322 319 319 320 320 319 317 317 316 315 314 314
290 294 295 296 299 294 291 294 299 299 298 300 310 312 314 315 318 322 323 323 322 323 323 326 329 327 325 324 322 321 319 319 320 322 323 323 323 323 321 321 321 320 318 317 316 315 315 315 315
297 295 294 296 299 296 296 297 297 299 295 295 298 305 311 315 320 322 323 322 320 320 321 324 327 327 326 325 322 320 320 319 317 321 323 324 324 323 321 321 321 321 319 318 317 315 314 314 316
296 294 294 297 299 298 295 295 298 297 298 295 297 298 302 311 315 319 322 321 320 318 320 321 325 327 327 327 327 323 321 319 319 319 321 324 323 323 323 321 321 322 320 318 317 315 313 313 315
297 295 295 295 295 298 293 292 294 298 300 300 298 298 299 302 311 316 319 321 322 318 318 321 323 325 327 327 327 324 319 318 319 319 320 322 325 324 323 323 322 321 321 319 318 316 314 312 313
294 301 299 295 293 289 295 287 292 297 299 300 302 302 299 298 306 313 318 320 321 322 320 321 322 323 325 326 325 324 322 319 321 323 323 322 324 324 324 323 322 321 321 320 319 319 318 314 315
296 303 300 296 293 290 289 290 291 293 296 300 302 304 304 301 300 310 315 320 322 324 322 319 320 322 324 325 325 323 322 322 321 322 321 321 321 324 325 324 322 322 321 321 320 316 317 318 317
296 295 295 294 292 286 291 291 288 291 295 296 302 305 305 303 300 303 313 319 321 324 323 318 316 320 322 324 324 322 321 320 318 319 320 321 322 323 324 324 324 322 321 320 319 319 318 318 318
297 295 285 285 284 285 288 287 294 296 296 297 298 300 302 303 302 299 302 311 316 318 321 320 315 317 320 321 322 322 321 321 319 319 320 320 320 321 323 324 323 323 322 321 320 318 318 317 317
296 296 287 283 281 284 285 283 290 297 301 299 299 299 297 299 302 302 299 307 314 317 320 321 319 316 316 319 320 321 321 321 320 320 321 321 321 322 323 324 324 324 323 321 320 319 318 318 317
294 293 294 281 273 278 282 285 291 294 294 294 293 291 293 294 295 300 301 299 309 313 318 321 322 321 320 316 318 319 320 320 319 320 321 322 324 324 324 324 325 325 324 322 321 320 318 318 318
296 297 288 287 278 275 280 281 286 290 292 293 293 293 293 292 293 295 298 297 301 309 314 318 322 322 323 323 320 319 318 319 320 321 321 323 324 324 322 322 323 325 323 323 321 321 319 316 316
292 292 292 289 285 279 276 281 289 293 292 294 294 293 292 292 293 294 293 294 296 297 304 309 312 314 315 317 323 324 323 321 320 320 322 324 324 323 323 322 323 322 322 321 319 319 317 312 314
293 296 294 290 282 282 282 282 290 291 292 292 292 292 292 292 291 291 292 293 294 294 294 297 303 308 312 312 314 317 319 316 319 322 323 322 321 318 321 323 322 322 321 319 316 315 313 311 311

GFSSGP_sfc_thetae_129.txt.gz
Theta_e
329 322 309 308 299 296 292 297 301 303 304 309 313 312 311 313 309 304 327 333 337 339 342 344 347 348 347 346 347 347 348 347 344 343 341 340 339 338 338 338 337 337 338 338 338 337 338 338 337
322 322 309 301 295 291 293 298 301 304 310 316 315 315 313 309 321 327 328 335 339 339 340 342 345 347 346 345 347 347 348 347 344 343 340 339 338 338 337 336 336 336 337 337 338 337 337 336 336
322 315 304 298 292 291 294 299 302 307 312 309 314 317 315 315 322 328 333 336 338 336 337 340 344 347 345 345 346 346 347 346 345 343 341 340 338 336 336 336 335 335 335 336 336 337 337 336 335
317 311 305 295 293 296 297 302 306 306 307 313 313 311 316 323 326 330 335 337 334 334 336 340 344 346 344 345 345 344 346 345 345 343 342 339 337 336 336 335 335 334 334 336 336 336 336 336 334
315 304 297 294 294 297 301 306 306 305 306 310 311 308 311 322 331 333 335 335 332 332 335 338 342 344 343 343 344 344 345 345 344 343 341 339 337 336 335 333 334 334 333 334 334 335 335 335 334
308 303 294 292 294 299 303 307 306 304 306 311 312 311 314 328 330 332 335 331 333 332 335 337 335 339 340 342 342 342 342 343 342 342 341 338 336 335 334 333 334 334 333 333 333 333 333 334 334
307 302 296 296 295 298 299 306 303 304 306 306 315 309 312 323 330 333 333 333 332 333 333 334 334 334 334 337 337 338 338 339 339 339 339 338 337 336 335 333 334 333 332 332 332 332 332 332 331
305 304 300 296 296 298 301 304 305 306 304 316 316 308 312 318 331 331 330 331 329 329 331 331 331 331 330 331 330 332 334 334 334 334 333 332 332 332 332 331 334 333 332 331 330 331 331 330 330
311 299 298 299 298 299 301 301 305 308 309 312 315 313 316 324 329 326 326 328 327 328 329 329 329 328 327 326 324 328 330 330 329 327 325 324 324 325 325 327 331 332 331 330 329 328 327 325 326
307 299 300 305 298 295 297 301 305 305 308 308 311 316 321 327 326 324 324 324 324 325 329 328 326 326 326 329 325 325 326 324 323 322 322 323 322 322 323 322 326 328 328 330 328 326 325 321 317
307 302 305 307 301 299 298 299 302 304 303 308 310 314 320 324 325 324 324 325 322 324 329 327 325 325 325 325 322 322 321 321 320 320 321 321 321 320 319 318 319 317 318 317 319 318 317 318 317
303 309 310 308 305 300 297 298 299 304 303 307 313 319 320 321 322 324 325 325 323 322 326 327 326 325 323 325 322 320 320 318 318 320 321 320 317 316 315 315 315 314 316 315 316 316 316 317 317
303 306 309 311 309 305 299 296 297 299 303 312 318 319 320 320 321 323 325 327 325 322 323 325 326 325 323 323 322 320 319 318 319 320 321 320 317 315 314 313 313 313 314 315 315 315 316 317 317
305 307 307 310 309 304 300 299 296 299 311 315 317 317 319 320 321 319 322 322 324 324 323 324 325 325 324 322 321 321 320 321 320 321 321 320 318 315 315 314 314 314 315 315 316 316 316 316 316
307 301 302 305 309 306 300 298 299 299 312 313 314 316 318 319 320 321 323 323 325 326 326 322 324 324 324 322 322 322 322 323 322 322 321 320 319 318 317 316 315 316 316 316 316 316 316 315 316
302 299 294 302 305 308 306 299 308 302 310 310 312 312 316 317 320 323 321 323 323 326 326 325 325 323 323 323 323 322 321 320 322 323 323 322 321 320 317 316 316 317 317 316 316 315 314 314 314
297 290 293 298 304 301 305 302 310 307 309 307 309 311 314 316 317 321 321 322 323 324 326 326 322 322 322 321 323 321 320 318 320 321 322 322 322 321 319 318 318 319 317 316 316 314 314 313 313
289 294 293 295 298 295 292 301 304 300 299 305 308 311 312 313 316 321 321 322 322 323 324 326 327 322 322 321 320 318 318 318 318 321 322 322 322 321 319 318 318 319 317 316 314 315 314 314 314
294 294 292 295 299 294 295 296 299 301 295 295 297 307 311 314 318 319 322 322 320 321 321 322 326 324 322 320 320 319 318 318 315 318 320 320 321 321 320 318 318 318 317 317 316 314 313 312 313
294 293 293 296 298 297 295 295 299 299 299 301 297 297 308 312 314 316 319 321 319 321 321 321 324 326 324 323 322 321 319 317 320 318 319 321 320 321 321 319 318 318 318 316 315 313 311 311 314
295 293 292 293 293 294 292 293 293 298 301 300 299 298 300 307 312 314 317 320 321 319 319 320 323 326 327 325 324 319 318 317 317 316 318 320 321 321 321 319 318 318 319 318 316 315 313 311 312
293 297 297 295 291 288 294 286 292 296 297 297 301 300 298 298 302 312 317 319 320 320 320 321 321 324 327 328 325 323 322 321 322 322 321 318 320 322 321 321 320 320 320 319 318 317 316 312 313
294 300 296 293 290 291 289 289 291 293 295 298 301 301 303 301 299 304 313 319 321 322 320 319 320 322 325 326 327 324 322 322 322 320 319 319 318 321 322 322 321 320 320 320 319 315 316 315 316
299 296 295 294 293 287 290 290 290 291 296 297 300 304 305 303 299 300 310 317 320 322 322 319 319 320 322 324 324 324 323 322 320 319 318 319 320 320 321 322 322 321 321 319 319 319 318 317 317
298 295 286 285 285 285 290 287 293 295 296 297 298 299 302 304 304 301 302 311 316 319 321 320 317 318 321 322 323 324 323 322 320 319 319 318 318 319 320 321 321 322 321 321 320 318 318 317 317
295 294 285 280 281 283 286 286 291 298 304 300 299 298 298 298 302 301 300 307 313 317 320 320 316 317 319 320 322 323 323 322 321 320 319 319 320 320 321 321 322 322 322 321 319 319 318 318 317
294 291 293 282 272 278 283 286 291 294 295 294 297 297 295 296 295 301 300 300 310 314 318 320 318 316 317 319 320 321 322 321 320 320 319 320 320 320 319 320 320 321 321 321 321 320 320 319 317
296 298 289 288 274 274 280 280 287 290 295 295 293 295 294 293 294 294 298 299 300 310 315 319 320 318 316 317 319 319 319 320 320 320 318 319 319 318 317 318 319 320 321 321 322 321 321 320 318
293 292 293 293 283 278 275 281 288 294 297 294 294 293 293 292 292 293 293 295 297 302 308 312 315 316 317 316 315 315 316 317 318 318 318 317 317 317 318 318 320 321 322 323 322 321 320 319 318
297 295 294 289 284 281 281 282 289 293 291 293 295 295 292 292 292 291 292 292 293 295 299 306 309 312 314 315 316 316 316 315 313 315 315 315 318 319 321 321 321 322 322 322 321 320 318 317 315